Time,TemperatureF,DewpointF,PressureIn,WindDirection,WindDirectionDegrees,WindSpeedMPH,WindSpeedGustMPH,Humidity,HourlyPrecipIn,Conditions,Clouds,dailyrainin,SoftwareType,DateUTC
2013-02-12 00:13:00,56.4,52.3,29.65,West,270,0.0,0.0,86,0.00,,,0.00,WUHU216HW,2013-02-12 05:13:00,
2013-02-12 00:18:00,56.4,52.3,29.65,West,270,0.0,0.0,86,0.00,,,0.00,WUHU216HW,2013-02-12 05:18:00,
2013-02-12 00:23:00,56.4,52.3,29.65,WNW,293,0.0,0.0,86,0.00,,,0.00,WUHU216HW,2013-02-12 05:23:00,
2013-02-12 00:28:00,56.3,52.4,29.65,WNW,293,0.0,0.0,87,0.00,,,0.00,WUHU216HW,2013-02-12 05:28:00,
2013-02-12 00:33:00,56.1,52.2,29.65,WNW,293,0.0,0.0,87,0.00,,,0.00,WUHU216HW,2013-02-12 05:33:00,
2013-02-12 00:38:00,56.1,52.2,29.65,WNW,293,0.0,2.2,87,0.00,,,0.00,WUHU216HW,2013-02-12 05:38:00,
2013-02-12 00:43:00,56.1,52.2,29.65,ESE,113,0.0,2.2,87,0.00,,,0.00,WUHU216HW,2013-02-12 05:43:00,
2013-02-12 00:48:00,56.1,52.2,29.65,ESE,113,0.0,0.0,87,0.00,,,0.00,WUHU216HW,2013-02-12 05:48:00,
2013-02-12 00:53:00,55.9,52.0,29.65,ESE,113,0.0,0.0,87,0.00,,,0.00,WUHU216HW,2013-02-12 05:53:00,
2013-02-12 00:58:00,55.9,52.0,29.65,ESE,113,0.0,0.0,87,0.00,,,0.00,WUHU216HW,2013-02-12 05:58:00,
2013-02-12 01:03:00,55.9,52.0,29.66,ESE,113,0.0,0.0,87,0.00,,,0.00,WUHU216HW,2013-02-12 06:03:00,
2013-02-12 01:08:00,55.7,51.9,29.66,SW,225,0.0,0.0,87,0.00,,,0.00,WUHU216HW,2013-02-12 06:08:00,
2013-02-12 01:13:00,55.7,51.9,29.67,SW,225,0.0,0.0,87,0.00,,,0.00,WUHU216HW,2013-02-12 06:13:00,
2013-02-12 01:18:00,55.5,51.7,29.66,West,270,0.0,0.0,87,0.00,,,0.00,WUHU216HW,2013-02-12 06:18:00,
2013-02-12 01:23:00,55.5,51.7,29.67,West,270,0.0,0.0,87,0.00,,,0.00,WUHU216HW,2013-02-12 06:23:00,
2013-02-12 01:28:00,55.5,51.7,29.67,WNW,293,0.0,0.0,87,0.00,,,0.00,WUHU216HW,2013-02-12 06:28:00,
2013-02-12 01:33:00,55.4,51.5,29.67,WNW,293,0.0,0.0,87,0.00,,,0.00,WUHU216HW,2013-02-12 06:33:00,
2013-02-12 01:39:00,55.2,51.3,29.67,WNW,293,0.0,0.0,87,0.00,,,0.00,WUHU216HW,2013-02-12 06:39:00,
2013-02-12 01:44:00,55.2,51.3,29.67,WNW,293,0.0,0.0,87,0.00,,,0.00,WUHU216HW,2013-02-12 06:44:00,
2013-02-12 01:49:00,55.0,51.2,29.67,WNW,293,0.0,0.0,87,0.00,,,0.00,WUHU216HW,2013-02-12 06:49:00,
2013-02-12 01:54:00,55.0,51.2,29.68,WNW,293,0.0,0.0,87,0.00,,,0.00,WUHU216HW,2013-02-12 06:54:00,
2013-02-12 01:59:00,54.6,50.8,29.67,WNW,293,0.0,0.0,87,0.00,,,0.00,WUHU216HW,2013-02-12 06:59:00,
2013-02-12 02:01:00,43.5,40.5,29.58,NNW,338,0.0,0.0,89,0.00,,,0.00,WUHU216HW,2013-02-12 07:01:00,
2013-02-12 02:02:00,43.7,40.6,29.58,NNW,338,0.0,0.0,89,0.00,,,0.00,WUHU216HW,2013-02-12 07:02:00,
2013-02-12 02:03:00,43.7,40.6,29.58,NNW,338,0.0,0.0,89,0.00,,,0.00,WUHU216HW,2013-02-12 07:03:00,
2013-02-12 02:04:00,54.6,50.8,29.68,WNW,293,0.0,0.0,87,0.00,,,0.00,WUHU216HW,2013-02-12 07:04:00,
2013-02-12 02:05:00,43.7,40.6,29.58,NNW,338,0.0,0.0,89,0.00,,,0.00,WUHU216HW,2013-02-12 07:05:00,
2013-02-12 02:06:00,43.5,40.5,29.58,NNW,338,0.0,0.0,89,0.00,,,0.00,WUHU216HW,2013-02-12 07:06:00,
2013-02-12 02:07:00,43.5,40.5,29.58,NNW,338,0.0,0.0,89,0.00,,,0.00,WUHU216HW,2013-02-12 07:07:00,
2013-02-12 02:08:00,43.5,40.5,29.58,NNW,338,0.0,0.0,89,0.00,,,0.00,WUHU216HW,2013-02-12 07:08:00,
2013-02-12 02:09:00,54.5,50.6,29.68,WNW,293,0.0,0.0,87,0.00,,,0.00,WUHU216HW,2013-02-12 07:09:00,
2013-02-12 02:10:00,43.5,40.5,29.57,NNW,338,0.0,0.0,89,0.00,,,0.00,WUHU216HW,2013-02-12 07:10:00,
2013-02-12 02:11:00,43.5,40.5,29.57,NNW,338,0.0,0.0,89,0.00,,,0.00,WUHU216HW,2013-02-12 07:11:00,
2013-02-12 02:12:00,43.5,40.5,29.57,NNW,338,0.0,0.0,89,0.00,,,0.00,WUHU216HW,2013-02-12 07:12:00,
2013-02-12 02:13:00,43.7,40.6,29.57,NNW,338,0.0,0.0,89,0.00,,,0.00,WUHU216HW,2013-02-12 07:13:00,
2013-02-12 02:14:00,54.3,50.5,29.68,WNW,293,0.0,0.0,87,0.00,,,0.00,WUHU216HW,2013-02-12 07:14:00,
2013-02-12 02:15:00,43.5,40.5,29.57,NNW,338,0.0,0.0,89,0.00,,,0.00,WUHU216HW,2013-02-12 07:15:00,
2013-02-12 02:16:00,43.5,40.5,29.57,NNW,338,0.0,0.0,89,0.00,,,0.00,WUHU216HW,2013-02-12 07:16:00,
2013-02-12 02:17:00,43.5,40.5,29.56,NNW,338,0.0,0.0,89,0.00,,,0.00,WUHU216HW,2013-02-12 07:17:00,
2013-02-12 02:18:00,43.5,40.5,29.56,NNW,338,0.0,0.0,89,0.00,,,0.00,WUHU216HW,2013-02-12 07:18:00,
2013-02-12 02:19:00,54.3,50.5,29.68,WNW,293,0.0,0.0,87,0.00,,,0.00,WUHU216HW,2013-02-12 07:19:00,
2013-02-12 02:20:00,43.5,40.5,29.55,NNW,338,0.0,0.0,89,0.00,,,0.00,WUHU216HW,2013-02-12 07:20:00,
2013-02-12 02:21:00,43.5,40.5,29.55,NNW,338,0.0,0.0,89,0.00,,,0.00,WUHU216HW,2013-02-12 07:21:00,
2013-02-12 02:24:00,54.1,50.3,29.68,West,270,0.0,0.0,87,0.00,,,0.00,WUHU216HW,2013-02-12 07:24:00,
2013-02-12 02:29:00,54.1,50.3,29.69,West,270,0.0,0.0,87,0.00,,,0.00,WUHU216HW,2013-02-12 07:29:00,
2013-02-12 02:30:00,43.5,40.5,29.56,NNW,338,0.0,0.0,89,0.00,,,0.00,WUHU216HW,2013-02-12 07:30:00,
2013-02-12 02:32:00,43.5,40.5,29.56,NNW,338,0.0,0.0,89,0.00,,,0.00,WUHU216HW,2013-02-12 07:32:00,
2013-02-12 02:33:00,43.5,40.5,29.56,NNW,338,0.0,0.0,89,0.00,,,0.00,WUHU216HW,2013-02-12 07:33:00,
2013-02-12 02:34:00,53.9,50.1,29.69,West,270,0.0,0.0,87,0.00,,,0.00,WUHU216HW,2013-02-12 07:34:00,
2013-02-12 02:35:00,43.5,40.5,29.56,NNW,338,0.0,0.0,89,0.00,,,0.00,WUHU216HW,2013-02-12 07:35:00,
2013-02-12 02:38:00,43.7,40.6,29.55,NNW,338,0.0,0.0,89,0.00,,,0.00,WUHU216HW,2013-02-12 07:38:00,
2013-02-12 02:39:00,53.7,49.9,29.68,West,270,0.0,0.0,87,0.00,,,0.00,WUHU216HW,2013-02-12 07:39:00,
2013-02-12 02:40:00,43.5,40.5,29.55,NNW,338,0.0,0.0,89,0.00,,,0.00,WUHU216HW,2013-02-12 07:40:00,
2013-02-12 02:42:00,43.7,40.6,29.55,NNW,338,0.0,0.0,89,0.00,,,0.00,WUHU216HW,2013-02-12 07:42:00,
2013-02-12 02:43:00,43.7,40.6,29.55,NNW,338,0.0,0.0,89,0.00,,,0.00,WUHU216HW,2013-02-12 07:43:00,
2013-02-12 02:44:00,53.6,49.8,29.68,West,270,0.0,0.0,87,0.00,,,0.00,WUHU216HW,2013-02-12 07:44:00,
2013-02-12 02:45:00,43.7,40.6,29.55,NNW,338,0.0,0.0,89,0.00,,,0.00,WUHU216HW,2013-02-12 07:45:00,
2013-02-12 02:46:00,43.7,40.6,29.55,NNW,338,0.0,0.0,89,0.00,,,0.00,WUHU216HW,2013-02-12 07:46:00,
2013-02-12 02:47:00,43.7,40.6,29.55,NNW,338,0.0,0.0,89,0.00,,,0.00,WUHU216HW,2013-02-12 07:47:00,
2013-02-12 02:48:00,43.7,40.6,29.55,NNW,338,0.0,0.0,89,0.00,,,0.00,WUHU216HW,2013-02-12 07:48:00,
2013-02-12 02:49:00,53.2,49.4,29.68,West,270,0.0,0.0,87,0.00,,,0.00,WUHU216HW,2013-02-12 07:49:00,
2013-02-12 02:50:00,43.7,40.6,29.55,NNW,338,0.0,0.0,89,0.00,,,0.00,WUHU216HW,2013-02-12 07:50:00,
2013-02-12 02:54:00,53.2,49.4,29.68,West,270,0.0,0.0,87,0.00,,,0.00,WUHU216HW,2013-02-12 07:54:00,
2013-02-12 02:56:00,43.5,40.5,29.55,NNW,338,0.0,0.0,89,0.00,,,0.00,WUHU216HW,2013-02-12 07:56:00,
2013-02-12 02:57:00,43.5,40.5,29.55,NNW,338,0.0,0.0,89,0.00,,,0.00,WUHU216HW,2013-02-12 07:57:00,
2013-02-12 02:58:00,43.5,40.5,29.56,NNW,338,0.0,0.0,89,0.00,,,0.00,WUHU216HW,2013-02-12 07:58:00,
2013-02-12 02:59:00,53.2,49.4,29.69,West,270,0.0,0.0,87,0.00,,,0.00,WUHU216HW,2013-02-12 07:59:00,
2013-02-12 03:00:00,43.5,40.5,29.55,NNW,338,0.0,0.0,89,0.00,,,0.00,WUHU216HW,2013-02-12 08:00:00,
2013-02-12 03:01:00,43.5,40.5,29.55,NNW,338,0.0,0.0,89,0.00,,,0.00,WUHU216HW,2013-02-12 08:01:00,
2013-02-12 03:02:00,43.5,40.5,29.56,NNW,338,0.0,0.0,89,0.00,,,0.00,WUHU216HW,2013-02-12 08:02:00,
2013-02-12 03:03:00,43.5,40.5,29.55,NNW,338,0.0,0.0,89,0.00,,,0.00,WUHU216HW,2013-02-12 08:03:00,
2013-02-12 03:04:00,53.0,49.5,29.68,West,270,0.0,0.0,88,0.00,,,0.00,WUHU216HW,2013-02-12 08:04:00,
2013-02-12 03:05:00,43.5,40.5,29.55,NNW,338,0.0,0.0,89,0.00,,,0.00,WUHU216HW,2013-02-12 08:05:00,
2013-02-12 03:07:00,43.5,40.5,29.55,NNW,338,0.0,0.0,89,0.00,,,0.00,WUHU216HW,2013-02-12 08:07:00,
2013-02-12 03:08:00,43.5,40.5,29.56,NNW,338,0.0,0.0,89,0.00,,,0.00,WUHU216HW,2013-02-12 08:08:00,
2013-02-12 03:09:00,52.8,49.3,29.69,West,270,0.0,0.0,88,0.00,,,0.00,WUHU216HW,2013-02-12 08:09:00,
2013-02-12 03:14:00,52.7,49.2,29.69,West,270,0.0,0.0,88,0.00,,,0.00,WUHU216HW,2013-02-12 08:14:00,
2013-02-12 03:19:00,52.5,49.0,29.69,West,270,0.0,0.0,88,0.00,,,0.00,WUHU216HW,2013-02-12 08:19:00,
2013-02-12 03:24:00,52.5,49.0,29.69,West,270,0.0,0.0,88,0.00,,,0.00,WUHU216HW,2013-02-12 08:24:00,
2013-02-12 03:29:00,52.3,48.5,29.69,West,270,1.3,1.3,87,0.00,,,0.00,WUHU216HW,2013-02-12 08:29:00,
2013-02-12 03:34:00,52.1,48.6,29.69,West,270,0.0,1.3,88,0.00,,,0.00,WUHU216HW,2013-02-12 08:34:00,
2013-02-12 03:39:00,51.9,48.4,29.69,West,270,0.0,1.3,88,0.00,,,0.00,WUHU216HW,2013-02-12 08:39:00,
2013-02-12 03:40:00,43.7,40.6,29.55,NNW,338,0.0,0.0,89,0.00,,,0.00,WUHU216HW,2013-02-12 08:40:00,
2013-02-12 03:41:00,43.7,40.6,29.55,NNW,338,0.0,0.0,89,0.00,,,0.00,WUHU216HW,2013-02-12 08:41:00,
2013-02-12 03:42:00,43.7,40.6,29.55,NNW,338,0.0,0.0,89,0.00,,,0.00,WUHU216HW,2013-02-12 08:42:00,
2013-02-12 03:43:00,43.7,40.6,29.55,NNW,338,0.0,0.0,89,0.00,,,0.00,WUHU216HW,2013-02-12 08:43:00,
2013-02-12 03:45:00,51.9,48.4,29.69,West,270,0.0,0.0,88,0.00,,,0.00,WUHU216HW,2013-02-12 08:45:00,
2013-02-12 03:46:00,43.7,40.6,29.55,NNW,338,0.0,0.0,89,0.00,,,0.00,WUHU216HW,2013-02-12 08:46:00,
2013-02-12 03:47:00,43.7,40.6,29.55,NNW,338,0.0,0.0,89,0.00,,,0.00,WUHU216HW,2013-02-12 08:47:00,
2013-02-12 03:49:00,43.7,40.6,29.55,NNW,338,0.0,0.0,89,0.00,,,0.00,WUHU216HW,2013-02-12 08:49:00,
2013-02-12 03:50:00,51.6,48.1,29.69,West,270,0.0,0.0,88,0.00,,,0.00,WUHU216HW,2013-02-12 08:50:00,
2013-02-12 03:52:00,43.7,40.6,29.56,NNW,338,0.0,0.0,89,0.00,,,0.00,WUHU216HW,2013-02-12 08:52:00,
2013-02-12 03:53:00,43.7,40.6,29.56,NNW,338,0.0,0.0,89,0.00,,,0.00,WUHU216HW,2013-02-12 08:53:00,
2013-02-12 03:54:00,43.7,40.6,29.56,NNW,338,0.0,0.0,89,0.00,,,0.00,WUHU216HW,2013-02-12 08:54:00,
2013-02-12 03:55:00,51.4,47.9,29.69,West,270,0.0,0.0,88,0.00,,,0.00,WUHU216HW,2013-02-12 08:55:00,
2013-02-12 03:56:00,43.7,40.6,29.56,NNW,338,0.0,0.0,89,0.00,,,0.00,WUHU216HW,2013-02-12 08:56:00,
2013-02-12 04:00:00,51.4,47.9,29.69,West,270,0.0,0.0,88,0.00,,,0.00,WUHU216HW,2013-02-12 09:00:00,
2013-02-12 04:05:00,51.2,47.7,29.69,West,270,0.0,0.0,88,0.00,,,0.00,WUHU216HW,2013-02-12 09:05:00,
2013-02-12 04:10:00,51.0,47.5,29.69,West,270,0.0,0.0,88,0.00,,,0.00,WUHU216HW,2013-02-12 09:10:00,
2013-02-12 04:15:00,50.9,47.4,29.69,West,270,0.0,0.0,88,0.00,,,0.00,WUHU216HW,2013-02-12 09:15:00,
2013-02-12 04:16:00,43.8,41.1,29.56,NNW,338,0.0,0.0,89,0.00,,,0.00,WUHU216HW,2013-02-12 09:16:00,
2013-02-12 04:17:00,43.8,41.1,29.56,NNW,338,0.0,0.0,89,0.00,,,0.00,WUHU216HW,2013-02-12 09:17:00,
2013-02-12 04:18:00,43.8,41.1,29.56,NNW,338,0.0,0.0,89,0.00,,,0.00,WUHU216HW,2013-02-12 09:18:00,
2013-02-12 04:19:00,43.8,41.1,29.56,NNW,338,0.0,0.0,89,0.00,,,0.00,WUHU216HW,2013-02-12 09:19:00,
2013-02-12 04:20:00,50.7,47.2,29.70,West,270,0.0,0.0,88,0.00,,,0.00,WUHU216HW,2013-02-12 09:20:00,
2013-02-12 04:21:00,43.8,41.1,29.56,NNW,338,0.0,0.0,89,0.00,,,0.00,WUHU216HW,2013-02-12 09:21:00,
2013-02-12 04:22:00,43.7,40.6,29.56,NNW,338,0.0,0.0,89,0.00,,,0.00,WUHU216HW,2013-02-12 09:22:00,
2013-02-12 04:23:00,43.7,40.6,29.56,NNW,338,0.0,0.0,89,0.00,,,0.00,WUHU216HW,2013-02-12 09:23:00,
2013-02-12 04:24:00,43.7,40.6,29.56,NNW,338,0.0,0.0,89,0.00,,,0.00,WUHU216HW,2013-02-12 09:24:00,
2013-02-12 04:25:00,50.7,47.2,29.70,West,270,0.0,0.0,88,0.00,,,0.00,WUHU216HW,2013-02-12 09:25:00,
2013-02-12 04:26:00,43.8,40.8,29.56,NNW,338,0.0,0.0,89,0.00,,,0.00,WUHU216HW,2013-02-12 09:26:00,
2013-02-12 04:27:00,43.8,40.8,29.56,NNW,338,0.0,0.0,89,0.00,,,0.00,WUHU216HW,2013-02-12 09:27:00,
2013-02-12 04:28:00,43.8,40.8,29.56,NNW,338,0.0,0.0,89,0.00,,,0.00,WUHU216HW,2013-02-12 09:28:00,
2013-02-12 04:29:00,43.8,40.8,29.57,NNW,338,0.0,0.0,90,0.00,,,0.00,WUHU216HW,2013-02-12 09:29:00,
2013-02-12 04:30:00,50.5,47.0,29.70,West,270,0.0,0.0,88,0.00,,,0.00,WUHU216HW,2013-02-12 09:30:00,
2013-02-12 04:31:00,43.8,40.8,29.57,NNW,338,0.0,0.0,90,0.00,,,0.00,WUHU216HW,2013-02-12 09:31:00,
2013-02-12 04:32:00,43.8,40.8,29.56,NNW,338,0.0,0.0,90,0.00,,,0.00,WUHU216HW,2013-02-12 09:32:00,
2013-02-12 04:33:00,43.8,40.8,29.57,NNW,338,0.0,0.0,90,0.00,,,0.00,WUHU216HW,2013-02-12 09:33:00,
2013-02-12 04:34:00,43.8,40.8,29.57,NNW,338,0.0,0.0,90,0.00,,,0.00,WUHU216HW,2013-02-12 09:34:00,
2013-02-12 04:35:00,50.3,46.8,29.69,West,270,0.0,0.0,88,0.00,,,0.00,WUHU216HW,2013-02-12 09:35:00,
2013-02-12 04:36:00,43.8,40.8,29.57,NNW,338,0.0,0.0,89,0.00,,,0.00,WUHU216HW,2013-02-12 09:36:00,
2013-02-12 04:37:00,43.8,40.8,29.57,NNW,338,0.0,0.0,89,0.00,,,0.00,WUHU216HW,2013-02-12 09:37:00,
2013-02-12 04:40:00,50.1,46.6,29.69,West,270,0.0,0.0,88,0.00,,,0.00,WUHU216HW,2013-02-12 09:40:00,
2013-02-12 04:45:00,49.8,46.3,29.69,West,270,0.0,0.0,88,0.00,,,0.00,WUHU216HW,2013-02-12 09:45:00,
2013-02-12 04:50:00,49.8,46.3,29.70,West,270,0.0,0.0,88,0.00,,,0.00,WUHU216HW,2013-02-12 09:50:00,
2013-02-12 04:55:00,49.6,46.1,29.69,West,270,0.0,0.0,88,0.00,,,0.00,WUHU216HW,2013-02-12 09:55:00,
2013-02-12 05:00:00,49.6,46.1,29.70,West,270,0.0,0.0,88,0.00,,,0.00,WUHU216HW,2013-02-12 10:00:00,
2013-02-12 05:01:00,43.8,40.8,29.58,NNW,338,0.0,0.0,90,0.00,,,0.00,WUHU216HW,2013-02-12 10:01:00,
2013-02-12 05:02:00,43.8,40.8,29.57,NNW,338,0.0,0.0,90,0.00,,,0.00,WUHU216HW,2013-02-12 10:02:00,
2013-02-12 05:03:00,43.8,40.8,29.57,NNW,338,0.0,0.0,90,0.00,,,0.00,WUHU216HW,2013-02-12 10:03:00,
2013-02-12 05:04:00,43.8,40.8,29.57,NNW,338,0.0,0.0,90,0.00,,,0.00,WUHU216HW,2013-02-12 10:04:00,
2013-02-12 05:05:00,49.2,45.8,29.69,West,270,0.0,0.0,88,0.00,,,0.00,WUHU216HW,2013-02-12 10:05:00,
2013-02-12 05:06:00,43.8,40.8,29.57,NNW,338,0.0,0.0,89,0.00,,,0.00,WUHU216HW,2013-02-12 10:06:00,
2013-02-12 05:08:00,43.8,40.8,29.58,NNW,338,0.0,0.0,89,0.00,,,0.00,WUHU216HW,2013-02-12 10:08:00,
2013-02-12 05:09:00,43.8,40.8,29.57,NNW,338,0.0,0.0,89,0.00,,,0.00,WUHU216HW,2013-02-12 10:09:00,
2013-02-12 05:10:00,49.2,45.8,29.70,West,270,0.0,0.0,88,0.00,,,0.00,WUHU216HW,2013-02-12 10:10:00,
2013-02-12 05:11:00,43.8,40.8,29.57,NNW,338,0.0,0.0,89,0.00,,,0.00,WUHU216HW,2013-02-12 10:11:00,
2013-02-12 05:12:00,43.8,40.8,29.57,NNW,338,0.0,0.0,89,0.00,,,0.00,WUHU216HW,2013-02-12 10:12:00,
2013-02-12 05:15:00,49.2,45.8,29.71,West,270,0.0,0.0,88,0.00,,,0.00,WUHU216HW,2013-02-12 10:15:00,
2013-02-12 05:21:00,49.1,45.6,29.71,West,270,0.0,0.0,88,0.00,,,0.00,WUHU216HW,2013-02-12 10:21:00,
2013-02-12 05:26:00,48.9,45.5,29.70,West,270,0.0,0.0,88,0.00,,,0.00,WUHU216HW,2013-02-12 10:26:00,
2013-02-12 05:31:00,48.7,45.0,29.70,West,270,0.0,0.0,87,0.00,,,0.00,WUHU216HW,2013-02-12 10:31:00,
2013-02-12 05:36:00,48.7,45.0,29.70,West,270,0.0,0.0,87,0.00,,,0.00,WUHU216HW,2013-02-12 10:36:00,
2013-02-12 05:41:00,48.7,45.0,29.70,West,270,0.0,0.0,86,0.00,,,0.00,WUHU216HW,2013-02-12 10:41:00,
2013-02-12 05:46:00,48.3,44.3,29.70,West,270,0.0,0.0,86,0.00,,,0.00,WUHU216HW,2013-02-12 10:46:00,
2013-02-12 05:51:00,48.3,44.3,29.71,West,270,0.0,0.0,86,0.00,,,0.00,WUHU216HW,2013-02-12 10:51:00,
2013-02-12 05:56:00,48.0,43.7,29.70,West,270,0.0,0.0,85,0.00,,,0.00,WUHU216HW,2013-02-12 10:56:00,
2013-02-12 06:01:00,48.0,43.7,29.71,West,270,0.0,0.0,85,0.00,,,0.00,WUHU216HW,2013-02-12 11:01:00,
2013-02-12 06:06:00,47.8,43.2,29.72,West,270,0.0,0.0,84,0.00,,,0.00,WUHU216HW,2013-02-12 11:06:00,
2013-02-12 06:07:00,43.7,40.6,29.58,SE,135,0.0,0.0,89,0.00,,,0.00,WUHU216HW,2013-02-12 11:07:00,
2013-02-12 06:08:00,43.7,40.6,29.58,SE,135,0.0,0.0,89,0.00,,,0.00,WUHU216HW,2013-02-12 11:08:00,
2013-02-12 06:09:00,43.7,40.6,29.57,SE,135,0.0,0.0,89,0.00,,,0.00,WUHU216HW,2013-02-12 11:09:00,
2013-02-12 06:10:00,43.7,40.6,29.56,SE,135,0.0,0.0,89,0.00,,,0.00,WUHU216HW,2013-02-12 11:10:00,
2013-02-12 06:11:00,47.8,43.2,29.71,West,270,0.0,0.0,83,0.00,,,0.00,WUHU216HW,2013-02-12 11:11:00,
2013-02-12 06:12:00,43.7,40.6,29.56,SE,135,0.0,0.0,89,0.00,,,0.00,WUHU216HW,2013-02-12 11:12:00,
2013-02-12 06:13:00,43.7,40.6,29.56,SE,135,0.0,0.0,89,0.00,,,0.00,WUHU216HW,2013-02-12 11:13:00,
2013-02-12 06:14:00,43.7,40.6,29.56,SE,135,0.0,0.0,89,0.00,,,0.00,WUHU216HW,2013-02-12 11:14:00,
2013-02-12 06:15:00,43.7,40.6,29.56,SE,135,0.0,0.0,89,0.00,,,0.00,WUHU216HW,2013-02-12 11:15:00,
2013-02-12 06:16:00,47.6,42.4,29.72,West,270,0.0,0.0,82,0.00,,,0.00,WUHU216HW,2013-02-12 11:16:00,
2013-02-12 06:17:00,43.5,40.5,29.56,SE,135,0.0,0.0,89,0.00,,,0.00,WUHU216HW,2013-02-12 11:17:00,
2013-02-12 06:18:00,43.5,40.5,29.56,SE,135,0.0,0.0,89,0.00,,,0.00,WUHU216HW,2013-02-12 11:18:00,
2013-02-12 06:19:00,43.5,40.5,29.56,SE,135,0.0,0.0,89,0.00,,,0.00,WUHU216HW,2013-02-12 11:19:00,
2013-02-12 06:20:00,43.5,40.5,29.56,SE,135,0.0,0.0,89,0.00,,,0.00,WUHU216HW,2013-02-12 11:20:00,
2013-02-12 06:21:00,47.4,41.9,29.72,West,270,0.0,0.0,80,0.00,,,0.00,WUHU216HW,2013-02-12 11:21:00,
2013-02-12 06:26:00,47.4,41.9,29.72,West,270,0.0,0.0,80,0.00,,,0.00,WUHU216HW,2013-02-12 11:26:00,
2013-02-12 06:31:00,47.1,40.9,29.72,West,270,2.4,2.4,79,0.00,,,0.00,WUHU216HW,2013-02-12 11:31:00,
2013-02-12 06:37:00,46.9,40.4,29.72,West,270,0.0,2.4,78,0.00,,,0.00,WUHU216HW,2013-02-12 11:37:00,
2013-02-12 06:40:00,43.7,40.6,29.56,SE,135,0.0,0.0,89,0.00,,,0.00,WUHU216HW,2013-02-12 11:40:00,
2013-02-12 06:42:00,46.7,39.2,29.72,West,270,0.0,2.4,75,0.00,,,0.00,WUHU216HW,2013-02-12 11:42:00,
2013-02-12 06:43:00,43.7,40.6,29.56,SE,135,0.0,0.0,89,0.00,,,0.00,WUHU216HW,2013-02-12 11:43:00,
2013-02-12 06:44:00,43.8,41.1,29.56,SE,135,0.0,0.0,90,0.00,,,0.00,WUHU216HW,2013-02-12 11:44:00,
2013-02-12 06:45:00,43.8,41.1,29.55,SE,135,0.0,0.0,90,0.00,,,0.00,WUHU216HW,2013-02-12 11:45:00,
2013-02-12 06:46:00,43.8,41.1,29.55,SE,135,0.0,0.0,90,0.00,,,0.00,WUHU216HW,2013-02-12 11:46:00,
2013-02-12 06:47:00,46.7,39.2,29.72,West,270,0.0,1.5,74,0.00,,,0.00,WUHU216HW,2013-02-12 11:47:00,
2013-02-12 06:48:00,43.8,41.1,29.56,SE,135,0.0,0.0,90,0.00,,,0.00,WUHU216HW,2013-02-12 11:48:00,
2013-02-12 06:49:00,43.8,41.1,29.56,SE,135,0.0,0.0,90,0.00,,,0.00,WUHU216HW,2013-02-12 11:49:00,
2013-02-12 06:50:00,43.8,41.1,29.55,SE,135,0.0,0.0,90,0.00,,,0.00,WUHU216HW,2013-02-12 11:50:00,
2013-02-12 06:51:00,43.8,41.1,29.55,SE,135,0.0,0.0,90,0.00,,,0.00,WUHU216HW,2013-02-12 11:51:00,
2013-02-12 06:52:00,46.5,38.4,29.72,West,270,0.0,0.0,73,0.00,,,0.00,WUHU216HW,2013-02-12 11:52:00,
2013-02-12 06:53:00,43.8,41.1,29.56,SE,135,0.0,0.0,90,0.00,,,0.00,WUHU216HW,2013-02-12 11:53:00,
2013-02-12 06:54:00,43.8,41.1,29.56,SE,135,0.0,0.0,90,0.00,,,0.00,WUHU216HW,2013-02-12 11:54:00,
2013-02-12 06:55:00,43.8,41.1,29.56,SE,135,0.0,0.0,90,0.00,,,0.00,WUHU216HW,2013-02-12 11:55:00,
2013-02-12 06:56:00,43.8,41.1,29.55,SE,135,0.0,0.0,90,0.00,,,0.00,WUHU216HW,2013-02-12 11:56:00,
2013-02-12 06:57:00,46.5,38.4,29.73,West,270,0.0,0.0,72,0.00,,,0.00,WUHU216HW,2013-02-12 11:57:00,
2013-02-12 06:58:00,43.8,41.1,29.55,SE,135,0.0,0.0,90,0.00,,,0.00,WUHU216HW,2013-02-12 11:58:00,
2013-02-12 06:59:00,43.8,41.1,29.55,SE,135,0.0,0.0,90,0.00,,,0.00,WUHU216HW,2013-02-12 11:59:00,
2013-02-12 07:00:00,43.8,41.1,29.55,SE,135,0.0,0.0,90,0.00,,,0.00,WUHU216HW,2013-02-12 12:00:00,
2013-02-12 07:01:00,43.8,41.1,29.55,SE,135,0.0,0.0,90,0.00,,,0.00,WUHU216HW,2013-02-12 12:01:00,
2013-02-12 07:02:00,46.4,37.9,29.73,West,270,0.0,0.0,71,0.00,,,0.00,WUHU216HW,2013-02-12 12:02:00,
2013-02-12 07:03:00,43.8,41.1,29.55,SE,135,0.0,0.0,90,0.00,,,0.00,WUHU216HW,2013-02-12 12:03:00,
2013-02-12 07:04:00,43.8,41.1,29.55,SE,135,0.0,0.0,90,0.00,,,0.00,WUHU216HW,2013-02-12 12:04:00,
2013-02-12 07:05:00,43.8,41.1,29.55,SE,135,0.0,0.0,90,0.00,,,0.00,WUHU216HW,2013-02-12 12:05:00,
2013-02-12 07:06:00,43.8,41.1,29.55,SE,135,0.0,0.0,90,0.00,,,0.00,WUHU216HW,2013-02-12 12:06:00,
2013-02-12 07:07:00,46.0,37.5,29.74,West,270,0.0,0.0,72,0.00,,,0.00,WUHU216HW,2013-02-12 12:07:00,
2013-02-12 07:08:00,43.8,41.1,29.55,SE,135,0.0,0.0,90,0.00,,,0.00,WUHU216HW,2013-02-12 12:08:00,
2013-02-12 07:09:00,43.8,41.1,29.55,SE,135,0.0,0.0,90,0.00,,,0.00,WUHU216HW,2013-02-12 12:09:00,
2013-02-12 07:10:00,43.8,41.1,29.55,SE,135,0.0,0.0,90,0.00,,,0.00,WUHU216HW,2013-02-12 12:10:00,
2013-02-12 07:11:00,43.8,41.1,29.55,SE,135,0.0,0.0,90,0.00,,,0.00,WUHU216HW,2013-02-12 12:11:00,
2013-02-12 07:12:00,46.0,37.5,29.74,West,270,0.0,0.0,69,0.00,,,0.00,WUHU216HW,2013-02-12 12:12:00,
2013-02-12 07:13:00,43.8,41.1,29.54,SE,135,0.0,0.0,90,0.00,,,0.00,WUHU216HW,2013-02-12 12:13:00,
2013-02-12 07:14:00,43.8,41.1,29.54,SE,135,0.0,0.0,90,0.00,,,0.00,WUHU216HW,2013-02-12 12:14:00,
2013-02-12 07:15:00,43.8,41.1,29.54,SE,135,0.0,0.0,90,0.00,,,0.00,WUHU216HW,2013-02-12 12:15:00,
2013-02-12 07:16:00,43.8,41.1,29.54,SE,135,0.0,0.0,90,0.00,,,0.00,WUHU216HW,2013-02-12 12:16:00,
2013-02-12 07:17:00,46.0,37.5,29.74,West,270,0.0,0.0,69,0.00,,,0.00,WUHU216HW,2013-02-12 12:17:00,
2013-02-12 07:18:00,43.8,41.1,29.53,SE,135,0.0,0.0,90,0.00,,,0.00,WUHU216HW,2013-02-12 12:18:00,
2013-02-12 07:20:00,43.8,41.1,29.53,SE,135,0.0,0.0,90,0.00,,,0.00,WUHU216HW,2013-02-12 12:20:00,
2013-02-12 07:21:00,43.8,41.1,29.52,SE,135,0.0,0.0,90,0.00,,,0.00,WUHU216HW,2013-02-12 12:21:00,
2013-02-12 07:22:00,46.0,36.0,29.74,West,270,0.0,0.0,68,0.00,,,0.00,WUHU216HW,2013-02-12 12:22:00,
2013-02-12 07:23:00,43.8,41.1,29.53,SE,135,0.0,0.0,90,0.00,,,0.00,WUHU216HW,2013-02-12 12:23:00,
2013-02-12 07:24:00,43.8,41.1,29.53,SE,135,0.0,0.0,90,0.00,,,0.00,WUHU216HW,2013-02-12 12:24:00,
2013-02-12 07:25:00,43.8,41.1,29.53,SE,135,0.0,0.0,90,0.00,,,0.00,WUHU216HW,2013-02-12 12:25:00,
2013-02-12 07:26:00,43.8,41.1,29.53,SE,135,0.0,0.0,90,0.00,,,0.00,WUHU216HW,2013-02-12 12:26:00,
2013-02-12 07:27:00,46.0,36.0,29.74,West,270,0.0,0.0,68,0.00,,,0.00,WUHU216HW,2013-02-12 12:27:00,
2013-02-12 07:28:00,43.8,41.1,29.53,SE,135,0.0,0.0,90,0.00,,,0.00,WUHU216HW,2013-02-12 12:28:00,
2013-02-12 07:29:00,43.8,41.1,29.53,SE,135,0.0,0.0,90,0.00,,,0.00,WUHU216HW,2013-02-12 12:29:00,
2013-02-12 07:31:00,43.8,41.1,29.53,SE,135,0.0,0.0,90,0.00,,,0.00,WUHU216HW,2013-02-12 12:31:00,
2013-02-12 07:32:00,46.0,36.0,29.74,West,270,0.0,0.0,67,0.00,,,0.00,WUHU216HW,2013-02-12 12:32:00,
2013-02-12 07:33:00,43.8,41.1,29.53,SE,135,0.0,0.0,90,0.00,,,0.00,WUHU216HW,2013-02-12 12:33:00,
2013-02-12 07:34:00,43.8,41.1,29.53,SE,135,0.0,0.0,90,0.00,,,0.00,WUHU216HW,2013-02-12 12:34:00,
2013-02-12 07:35:00,43.8,41.1,29.53,SE,135,0.0,0.0,90,0.00,,,0.00,WUHU216HW,2013-02-12 12:35:00,
2013-02-12 07:36:00,43.8,41.1,29.53,SE,135,0.0,0.0,90,0.00,,,0.00,WUHU216HW,2013-02-12 12:36:00,
2013-02-12 07:37:00,46.0,36.0,29.74,West,270,0.0,0.0,67,0.00,,,0.00,WUHU216HW,2013-02-12 12:37:00,
2013-02-12 07:39:00,43.8,41.1,29.53,SE,135,0.0,0.0,90,0.00,,,0.00,WUHU216HW,2013-02-12 12:39:00,
2013-02-12 07:42:00,46.0,36.0,29.75,West,270,0.0,0.0,66,0.00,,,0.00,WUHU216HW,2013-02-12 12:42:00,
2013-02-12 07:47:00,45.8,35.1,29.75,West,270,0.0,0.0,66,0.00,,,0.00,WUHU216HW,2013-02-12 12:47:00,
2013-02-12 07:50:00,43.7,40.6,29.54,SE,135,0.0,0.0,89,0.00,,,0.00,WUHU216HW,2013-02-12 12:50:00,
2013-02-12 07:51:00,43.7,40.6,29.54,SE,135,0.0,0.0,89,0.00,,,0.00,WUHU216HW,2013-02-12 12:51:00,
2013-02-12 07:52:00,45.8,35.1,29.76,West,270,0.0,0.0,67,0.00,,,0.00,WUHU216HW,2013-02-12 12:52:00,
2013-02-12 07:53:00,43.7,40.6,29.54,SE,135,0.0,0.0,89,0.00,,,0.00,WUHU216HW,2013-02-12 12:53:00,
2013-02-12 07:55:00,43.7,40.6,29.54,SE,135,0.0,0.0,89,0.00,,,0.00,WUHU216HW,2013-02-12 12:55:00,
2013-02-12 07:57:00,45.6,34.5,29.75,West,270,0.0,0.0,65,0.00,,,0.00,WUHU216HW,2013-02-12 12:57:00,
2013-02-12 07:58:00,43.8,41.1,29.53,SE,135,0.0,0.0,90,0.00,,,0.00,WUHU216HW,2013-02-12 12:58:00,
2013-02-12 07:59:00,43.8,41.1,29.53,SE,135,0.0,0.0,90,0.00,,,0.00,WUHU216HW,2013-02-12 12:59:00,
2013-02-12 08:00:00,43.8,41.1,29.54,SE,135,0.0,0.0,90,0.00,,,0.00,WUHU216HW,2013-02-12 13:00:00,
2013-02-12 08:01:00,43.8,41.1,29.54,SE,135,0.0,0.0,90,0.00,,,0.00,WUHU216HW,2013-02-12 13:01:00,
2013-02-12 08:02:00,45.6,34.5,29.76,West,270,0.0,0.0,65,0.00,,,0.00,WUHU216HW,2013-02-12 13:02:00,
2013-02-12 08:04:00,43.8,41.1,29.55,SE,135,0.0,0.0,90,0.00,,,0.00,WUHU216HW,2013-02-12 13:04:00,
2013-02-12 08:07:00,46.0,34.5,29.76,West,270,0.0,0.0,64,0.00,,,0.00,WUHU216HW,2013-02-12 13:07:00,
2013-02-12 08:12:00,46.0,34.5,29.76,West,270,0.0,0.0,62,0.00,,,0.00,WUHU216HW,2013-02-12 13:12:00,
2013-02-12 08:15:00,43.7,40.6,29.55,SE,135,0.0,0.0,89,0.00,,,0.00,WUHU216HW,2013-02-12 13:15:00,
2013-02-12 08:16:00,43.7,40.6,29.55,SE,135,0.0,0.0,89,0.00,,,0.00,WUHU216HW,2013-02-12 13:16:00,
2013-02-12 08:17:00,46.0,34.5,29.76,West,270,0.0,0.0,62,0.00,,,0.00,WUHU216HW,2013-02-12 13:17:00,
2013-02-12 08:18:00,43.7,40.6,29.55,SE,135,0.0,0.0,89,0.00,,,0.00,WUHU216HW,2013-02-12 13:18:00,
2013-02-12 08:19:00,43.7,40.6,29.55,SE,135,0.0,0.0,89,0.00,,,0.00,WUHU216HW,2013-02-12 13:19:00,
2013-02-12 08:20:00,43.7,40.6,29.55,SE,135,0.0,0.0,89,0.00,,,0.00,WUHU216HW,2013-02-12 13:20:00,
2013-02-12 08:21:00,43.7,40.6,29.55,SE,135,0.0,0.0,89,0.00,,,0.00,WUHU216HW,2013-02-12 13:21:00,
2013-02-12 08:22:00,46.4,34.0,29.76,West,270,0.0,0.0,62,0.00,,,0.00,WUHU216HW,2013-02-12 13:22:00,
2013-02-12 08:23:00,43.7,40.6,29.55,SE,135,0.0,0.0,89,0.00,,,0.00,WUHU216HW,2013-02-12 13:23:00,
2013-02-12 08:24:00,43.7,40.6,29.55,SE,135,0.0,0.0,89,0.00,,,0.00,WUHU216HW,2013-02-12 13:24:00,
2013-02-12 08:25:00,43.7,40.6,29.55,SE,135,0.0,0.0,89,0.00,,,0.00,WUHU216HW,2013-02-12 13:25:00,
2013-02-12 08:26:00,43.7,40.6,29.55,SE,135,0.0,0.0,89,0.00,,,0.00,WUHU216HW,2013-02-12 13:26:00,
2013-02-12 08:27:00,47.3,34.5,29.75,West,270,0.0,0.0,61,0.00,,,0.00,WUHU216HW,2013-02-12 13:27:00,
2013-02-12 08:28:00,43.7,40.6,29.55,SE,135,0.0,0.0,89,0.00,,,0.00,WUHU216HW,2013-02-12 13:28:00,
2013-02-12 08:29:00,43.7,40.6,29.55,SE,135,0.0,0.0,89,0.00,,,0.00,WUHU216HW,2013-02-12 13:29:00,
2013-02-12 08:30:00,43.7,40.6,29.55,SE,135,0.0,0.0,89,0.00,,,0.00,WUHU216HW,2013-02-12 13:30:00,
2013-02-12 08:31:00,43.7,40.6,29.55,SE,135,0.0,0.0,89,0.00,,,0.00,WUHU216HW,2013-02-12 13:31:00,
2013-02-12 08:32:00,47.4,34.7,29.77,WSW,248,0.0,0.0,59,0.00,,,0.00,WUHU216HW,2013-02-12 13:32:00,
2013-02-12 08:33:00,43.7,40.6,29.55,SE,135,0.0,0.0,89,0.00,,,0.00,WUHU216HW,2013-02-12 13:33:00,
2013-02-12 08:34:00,43.7,40.6,29.55,SE,135,0.0,0.0,89,0.00,,,0.00,WUHU216HW,2013-02-12 13:34:00,
2013-02-12 08:35:00,43.7,40.6,29.55,SE,135,0.0,0.0,89,0.00,,,0.00,WUHU216HW,2013-02-12 13:35:00,
2013-02-12 08:36:00,43.7,40.6,29.55,NW,315,0.0,0.0,89,0.00,,,0.00,WUHU216HW,2013-02-12 13:36:00,
2013-02-12 08:37:00,47.8,34.2,29.77,West,270,0.0,0.8,58,0.00,,,0.00,WUHU216HW,2013-02-12 13:37:00,
2013-02-12 08:39:00,43.7,40.6,29.55,NW,315,0.0,0.0,89,0.00,,,0.00,WUHU216HW,2013-02-12 13:39:00,
2013-02-12 08:40:00,43.7,40.6,29.55,NW,315,0.0,0.0,89,0.00,,,0.00,WUHU216HW,2013-02-12 13:40:00,
2013-02-12 08:41:00,43.7,40.6,29.55,NW,315,0.0,0.0,89,0.00,,,0.00,WUHU216HW,2013-02-12 13:41:00,
2013-02-12 08:42:00,48.0,33.9,29.77,West,270,0.0,1.7,58,0.00,,,0.00,WUHU216HW,2013-02-12 13:42:00,
2013-02-12 08:43:00,43.7,40.6,29.55,NW,315,0.0,0.0,89,0.00,,,0.00,WUHU216HW,2013-02-12 13:43:00,
2013-02-12 08:47:00,48.3,34.7,29.77,WNW,293,2.4,2.6,57,0.00,,,0.00,WUHU216HW,2013-02-12 13:47:00,
2013-02-12 08:52:00,49.1,34.9,29.77,WNW,293,0.0,2.6,58,0.00,,,0.00,WUHU216HW,2013-02-12 13:52:00,
2013-02-12 08:57:00,49.8,34.2,29.76,NW,315,0.0,2.4,55,0.00,,,0.00,WUHU216HW,2013-02-12 13:57:00,
2013-02-12 09:02:00,50.3,35.2,29.76,NW,315,0.0,1.7,56,0.00,,,0.00,WUHU216HW,2013-02-12 14:02:00,
2013-02-12 09:05:00,43.3,40.3,29.55,NW,315,0.0,0.0,89,0.00,,,0.00,WUHU216HW,2013-02-12 14:05:00,
2013-02-12 09:06:00,43.3,40.3,29.55,NW,315,0.0,0.0,89,0.00,,,0.00,WUHU216HW,2013-02-12 14:06:00,
2013-02-12 09:07:00,50.5,34.9,29.77,NW,315,0.0,1.7,55,0.00,,,0.00,WUHU216HW,2013-02-12 14:07:00,
2013-02-12 09:08:00,43.3,40.3,29.55,NNW,338,0.0,0.0,89,0.00,,,0.00,WUHU216HW,2013-02-12 14:08:00,
2013-02-12 09:09:00,43.3,40.3,29.55,NNW,338,0.0,0.0,89,0.00,,,0.00,WUHU216HW,2013-02-12 14:09:00,
2013-02-12 09:10:00,43.3,40.3,29.56,NNW,338,0.0,0.0,89,0.00,,,0.00,WUHU216HW,2013-02-12 14:10:00,
2013-02-12 09:11:00,43.3,40.3,29.56,NNW,338,0.0,0.0,89,0.00,,,0.00,WUHU216HW,2013-02-12 14:11:00,
2013-02-12 09:12:00,50.5,34.4,29.77,NW,315,0.0,2.6,54,0.00,,,0.00,WUHU216HW,2013-02-12 14:12:00,
2013-02-12 09:13:00,43.3,40.3,29.56,NNW,338,0.0,0.0,89,0.00,,,0.00,WUHU216HW,2013-02-12 14:13:00,
2013-02-12 09:14:00,43.3,40.3,29.55,NNW,338,0.0,0.0,89,0.00,,,0.00,WUHU216HW,2013-02-12 14:14:00,
2013-02-12 09:15:00,43.3,40.3,29.55,North,0,0.0,0.0,89,0.00,,,0.00,WUHU216HW,2013-02-12 14:15:00,
2013-02-12 09:16:00,43.3,40.3,29.56,North,0,0.0,0.0,89,0.00,,,0.00,WUHU216HW,2013-02-12 14:16:00,
2013-02-12 09:18:00,50.5,34.4,29.77,NW,315,0.0,2.6,55,0.00,,,0.00,WUHU216HW,2013-02-12 14:18:00,
2013-02-12 09:21:00,43.3,40.3,29.55,North,0,0.0,0.0,89,0.00,,,0.00,WUHU216HW,2013-02-12 14:21:00,
2013-02-12 09:23:00,50.7,34.6,29.78,NW,315,0.0,0.0,54,0.00,,,0.00,WUHU216HW,2013-02-12 14:23:00,
2013-02-12 09:24:00,43.3,40.3,29.55,North,0,0.0,0.0,90,0.00,,,0.00,WUHU216HW,2013-02-12 14:24:00,
2013-02-12 09:25:00,43.3,40.3,29.55,North,0,0.0,0.0,90,0.00,,,0.00,WUHU216HW,2013-02-12 14:25:00,
2013-02-12 09:26:00,43.3,40.3,29.55,North,0,0.0,0.0,90,0.00,,,0.00,WUHU216HW,2013-02-12 14:26:00,
2013-02-12 09:27:00,43.3,40.3,29.55,North,0,0.0,0.0,90,0.00,,,0.00,WUHU216HW,2013-02-12 14:27:00,
2013-02-12 09:28:00,50.9,34.3,29.79,NW,315,0.0,0.0,52,0.00,,,0.00,WUHU216HW,2013-02-12 14:28:00,
2013-02-12 09:29:00,43.3,40.3,29.55,North,0,0.0,0.0,90,0.00,,,0.00,WUHU216HW,2013-02-12 14:29:00,
2013-02-12 09:30:00,43.3,40.3,29.55,North,0,0.0,0.0,90,0.00,,,0.00,WUHU216HW,2013-02-12 14:30:00,
2013-02-12 09:31:00,43.3,40.3,29.54,North,0,0.0,0.0,90,0.00,,,0.00,WUHU216HW,2013-02-12 14:31:00,
2013-02-12 09:33:00,51.0,34.0,29.79,NW,315,0.0,0.0,52,0.00,,,0.00,WUHU216HW,2013-02-12 14:33:00,
2013-02-12 09:34:00,43.3,40.3,29.54,North,0,0.0,0.0,90,0.00,,,0.00,WUHU216HW,2013-02-12 14:34:00,
2013-02-12 09:35:00,43.3,40.3,29.55,North,0,0.0,0.0,90,0.00,,,0.00,WUHU216HW,2013-02-12 14:35:00,
2013-02-12 09:36:00,43.3,40.3,29.55,North,0,0.0,0.0,90,0.00,,,0.00,WUHU216HW,2013-02-12 14:36:00,
2013-02-12 09:37:00,43.3,40.3,29.55,North,0,0.0,0.0,90,0.00,,,0.00,WUHU216HW,2013-02-12 14:37:00,
2013-02-12 09:38:00,51.4,34.8,29.79,NW,315,0.0,0.0,53,0.00,,,0.00,WUHU216HW,2013-02-12 14:38:00,
2013-02-12 09:40:00,43.3,40.3,29.55,North,0,0.0,0.0,90,0.00,,,0.00,WUHU216HW,2013-02-12 14:40:00,
2013-02-12 09:42:00,43.3,40.3,29.55,North,0,0.0,0.0,90,0.00,,,0.00,WUHU216HW,2013-02-12 14:42:00,
2013-02-12 09:43:00,51.9,34.8,29.79,NW,315,0.0,0.0,50,0.00,,,0.00,WUHU216HW,2013-02-12 14:43:00,
2013-02-12 09:44:00,43.5,40.8,29.55,North,0,0.0,0.0,90,0.00,,,0.00,WUHU216HW,2013-02-12 14:44:00,
2013-02-12 09:45:00,43.5,40.8,29.55,North,0,0.0,0.0,90,0.00,,,0.00,WUHU216HW,2013-02-12 14:45:00,
2013-02-12 09:46:00,43.5,40.8,29.55,North,0,0.0,0.0,90,0.00,,,0.00,WUHU216HW,2013-02-12 14:46:00,
2013-02-12 09:47:00,43.5,40.8,29.55,North,0,0.0,0.0,90,0.00,,,0.00,WUHU216HW,2013-02-12 14:47:00,
2013-02-12 09:48:00,52.3,34.7,29.79,NW,315,0.0,2.0,51,0.00,,,0.00,WUHU216HW,2013-02-12 14:48:00,
2013-02-12 09:49:00,43.5,40.8,29.55,North,0,0.0,0.0,90,0.00,,,0.00,WUHU216HW,2013-02-12 14:49:00,
2013-02-12 09:50:00,43.5,40.8,29.55,North,0,0.0,0.0,90,0.00,,,0.00,WUHU216HW,2013-02-12 14:50:00,
2013-02-12 09:51:00,43.5,40.8,29.55,North,0,0.0,0.0,90,0.00,,,0.00,WUHU216HW,2013-02-12 14:51:00,
2013-02-12 09:52:00,43.5,40.8,29.55,North,0,0.0,0.0,90,0.00,,,0.00,WUHU216HW,2013-02-12 14:52:00,
2013-02-12 09:53:00,52.5,34.9,29.79,West,270,0.0,2.0,51,0.00,,,0.00,WUHU216HW,2013-02-12 14:53:00,
2013-02-12 09:54:00,43.5,40.8,29.55,North,0,0.0,0.0,90,0.00,,,0.00,WUHU216HW,2013-02-12 14:54:00,
2013-02-12 09:55:00,43.5,40.8,29.55,North,0,0.0,0.0,90,0.00,,,0.00,WUHU216HW,2013-02-12 14:55:00,
2013-02-12 09:56:00,43.5,40.8,29.55,North,0,0.0,0.0,90,0.00,,,0.00,WUHU216HW,2013-02-12 14:56:00,
2013-02-12 09:57:00,43.5,40.8,29.55,North,0,0.0,0.0,90,0.00,,,0.00,WUHU216HW,2013-02-12 14:57:00,
2013-02-12 09:58:00,53.2,34.5,29.79,West,270,0.0,0.0,49,0.00,,,0.00,WUHU216HW,2013-02-12 14:58:00,
2013-02-12 09:59:00,43.5,40.8,29.55,North,0,0.0,0.0,90,0.00,,,0.00,WUHU216HW,2013-02-12 14:59:00,
2013-02-12 10:03:00,54.3,34.9,29.79,NNW,338,0.0,2.6,48,0.00,,,0.00,WUHU216HW,2013-02-12 15:03:00,
2013-02-12 10:08:00,55.0,33.9,29.79,SE,135,0.0,2.6,47,0.00,,,0.00,WUHU216HW,2013-02-12 15:08:00,
2013-02-12 10:13:00,56.1,36.6,29.79,WSW,248,0.0,1.7,48,0.00,,,0.00,WUHU216HW,2013-02-12 15:13:00,
2013-02-12 10:18:00,56.8,37.9,29.79,West,270,2.2,2.2,49,0.00,,,0.00,WUHU216HW,2013-02-12 15:18:00,
2013-02-12 10:23:00,56.1,33.8,29.79,West,270,0.0,2.2,43,0.00,,,0.00,WUHU216HW,2013-02-12 15:23:00,
2013-02-12 10:28:00,56.4,36.4,29.79,NW,315,0.0,2.2,47,0.00,,,0.00,WUHU216HW,2013-02-12 15:28:00,
2013-02-12 10:33:00,56.8,35.6,29.79,NW,315,0.0,0.8,45,0.00,,,0.00,WUHU216HW,2013-02-12 15:33:00,
2013-02-12 10:38:00,56.6,34.8,29.79,West,270,0.0,0.0,43,0.00,,,0.00,WUHU216HW,2013-02-12 15:38:00,
2013-02-12 10:41:00,43.7,41.0,29.53,North,0,0.0,0.0,90,0.00,,,0.00,WUHU216HW,2013-02-12 15:41:00,
2013-02-12 10:42:00,43.7,41.0,29.53,North,0,0.0,0.0,90,0.00,,,0.00,WUHU216HW,2013-02-12 15:42:00,
2013-02-12 10:43:00,43.7,41.0,29.53,North,0,0.0,0.0,90,0.00,,,0.00,WUHU216HW,2013-02-12 15:43:00,
2013-02-12 10:44:00,57.0,35.2,29.79,WNW,293,0.0,0.0,44,0.00,,,0.00,WUHU216HW,2013-02-12 15:44:00,
2013-02-12 10:45:00,43.7,41.0,29.53,North,0,0.0,0.0,90,0.00,,,0.00,WUHU216HW,2013-02-12 15:45:00,
2013-02-12 10:46:00,43.7,41.0,29.53,North,0,0.0,0.0,90,0.00,,,0.00,WUHU216HW,2013-02-12 15:46:00,
2013-02-12 10:47:00,43.7,41.0,29.53,North,0,0.0,0.0,90,0.00,,,0.00,WUHU216HW,2013-02-12 15:47:00,
2013-02-12 10:48:00,57.2,34.8,29.79,WNW,293,4.2,4.2,43,0.00,,,0.00,WUHU216HW,2013-02-12 15:48:00,
2013-02-12 10:49:00,43.7,41.0,29.53,North,0,0.0,0.0,90,0.00,,,0.00,WUHU216HW,2013-02-12 15:49:00,
2013-02-12 10:50:00,43.7,41.0,29.53,North,0,0.0,0.0,90,0.00,,,0.00,WUHU216HW,2013-02-12 15:50:00,
2013-02-12 10:51:00,43.8,41.1,29.53,North,0,0.0,0.0,90,0.00,,,0.00,WUHU216HW,2013-02-12 15:51:00,
2013-02-12 10:52:00,43.8,41.1,29.53,North,0,0.0,0.0,90,0.00,,,0.00,WUHU216HW,2013-02-12 15:52:00,
2013-02-12 10:53:00,43.8,41.1,29.53,North,0,0.0,0.0,90,0.00,,,0.00,WUHU216HW,2013-02-12 15:53:00,
2013-02-12 10:54:00,57.0,33.4,29.79,West,270,0.0,4.2,41,0.00,,,0.00,WUHU216HW,2013-02-12 15:54:00,
2013-02-12 10:55:00,43.8,41.1,29.52,North,0,0.0,0.0,90,0.00,,,0.00,WUHU216HW,2013-02-12 15:55:00,
2013-02-12 10:56:00,43.7,41.0,29.53,North,0,0.0,0.0,90,0.00,,,0.00,WUHU216HW,2013-02-12 15:56:00,
2013-02-12 10:57:00,43.7,41.0,29.53,North,0,0.0,0.0,90,0.00,,,0.00,WUHU216HW,2013-02-12 15:57:00,
2013-02-12 10:58:00,43.7,41.0,29.53,North,0,0.0,0.0,90,0.00,,,0.00,WUHU216HW,2013-02-12 15:58:00,
2013-02-12 10:59:00,57.3,33.2,29.79,West,270,2.2,4.2,40,0.00,,,0.00,WUHU216HW,2013-02-12 15:59:00,
2013-02-12 11:01:00,43.7,41.0,29.52,North,0,0.0,0.0,90,0.00,,,0.00,WUHU216HW,2013-02-12 16:01:00,
2013-02-12 11:02:00,43.7,41.0,29.52,North,0,0.0,0.0,90,0.00,,,0.00,WUHU216HW,2013-02-12 16:02:00,
2013-02-12 11:03:00,43.7,41.0,29.52,North,0,0.0,0.0,90,0.00,,,0.00,WUHU216HW,2013-02-12 16:03:00,
2013-02-12 11:04:00,57.7,34.7,29.79,West,270,0.0,2.2,42,0.00,,,0.00,WUHU216HW,2013-02-12 16:04:00,
2013-02-12 11:08:00,43.7,41.0,29.52,North,0,0.0,0.0,90,0.00,,,0.00,WUHU216HW,2013-02-12 16:08:00,
2013-02-12 11:09:00,58.6,36.1,29.79,WSW,248,0.0,2.2,43,0.00,,,0.00,WUHU216HW,2013-02-12 16:09:00,
2013-02-12 11:13:00,43.7,41.0,29.52,North,0,0.0,0.0,90,0.00,,,0.00,WUHU216HW,2013-02-12 16:13:00,
2013-02-12 11:14:00,59.1,35.4,29.79,West,270,0.0,0.0,41,0.00,,,0.00,WUHU216HW,2013-02-12 16:14:00,
2013-02-12 11:16:00,43.8,41.1,29.51,North,0,0.0,0.0,90,0.00,,,0.00,WUHU216HW,2013-02-12 16:16:00,
2013-02-12 11:17:00,43.8,41.1,29.51,North,0,0.0,0.0,90,0.00,,,0.00,WUHU216HW,2013-02-12 16:17:00,
2013-02-12 11:19:00,59.9,35.5,29.79,WNW,293,0.0,0.0,40,0.00,,,0.00,WUHU216HW,2013-02-12 16:19:00,
2013-02-12 11:20:00,43.8,41.1,29.52,North,0,0.0,0.0,90,0.00,,,0.00,WUHU216HW,2013-02-12 16:20:00,
2013-02-12 11:21:00,43.8,41.1,29.52,North,0,0.0,0.0,90,0.00,,,0.00,WUHU216HW,2013-02-12 16:21:00,
2013-02-12 11:23:00,43.8,41.1,29.52,North,0,0.0,0.0,90,0.00,,,0.00,WUHU216HW,2013-02-12 16:23:00,
2013-02-12 11:24:00,59.7,35.3,29.78,WNW,293,0.0,0.0,40,0.00,,,0.00,WUHU216HW,2013-02-12 16:24:00,
2013-02-12 11:25:00,43.8,41.1,29.52,North,0,0.0,0.0,90,0.00,,,0.00,WUHU216HW,2013-02-12 16:25:00,
2013-02-12 11:26:00,43.8,41.1,29.52,North,0,0.0,0.0,90,0.00,,,0.00,WUHU216HW,2013-02-12 16:26:00,
2013-02-12 11:27:00,43.8,41.1,29.53,North,0,0.0,0.0,90,0.00,,,0.00,WUHU216HW,2013-02-12 16:27:00,
2013-02-12 11:28:00,43.7,41.0,29.53,NNW,338,0.0,0.0,90,0.00,,,0.00,WUHU216HW,2013-02-12 16:28:00,
2013-02-12 11:29:00,60.0,36.2,29.78,West,270,0.0,0.0,41,0.00,,,0.00,WUHU216HW,2013-02-12 16:29:00,
2013-02-12 11:30:00,43.7,41.0,29.51,NNW,338,0.0,0.0,90,0.00,,,0.00,WUHU216HW,2013-02-12 16:30:00,
2013-02-12 11:31:00,43.7,41.0,29.51,NNW,338,0.0,0.0,90,0.00,,,0.00,WUHU216HW,2013-02-12 16:31:00,
2013-02-12 11:32:00,43.7,41.0,29.51,NNW,338,0.0,0.0,90,0.00,,,0.00,WUHU216HW,2013-02-12 16:32:00,
2013-02-12 11:34:00,60.4,36.5,29.78,West,270,0.0,0.0,41,0.00,,,0.00,WUHU216HW,2013-02-12 16:34:00,
2013-02-12 11:35:00,43.7,41.0,29.52,NNW,338,0.0,0.0,90,0.04,,,0.04,WUHU216HW,2013-02-12 16:35:00,
2013-02-12 11:36:00,43.7,41.0,29.52,NNW,338,0.0,0.0,90,0.04,,,0.04,WUHU216HW,2013-02-12 16:36:00,
2013-02-12 11:37:00,43.7,41.0,29.52,NNW,338,0.0,0.0,90,0.04,,,0.04,WUHU216HW,2013-02-12 16:37:00,
2013-02-12 11:38:00,43.7,41.0,29.52,NNW,338,0.0,0.0,90,0.04,,,0.04,WUHU216HW,2013-02-12 16:38:00,
2013-02-12 11:39:00,60.6,34.0,29.78,WSW,248,0.0,0.0,37,0.00,,,0.00,WUHU216HW,2013-02-12 16:39:00,
2013-02-12 11:44:00,61.1,36.6,29.78,NW,315,0.0,0.0,40,0.00,,,0.00,WUHU216HW,2013-02-12 16:44:00,
2013-02-12 11:49:00,61.8,35.8,29.78,WNW,293,0.0,0.0,38,0.00,,,0.00,WUHU216HW,2013-02-12 16:49:00,
2013-02-12 11:54:00,61.7,34.9,29.77,West,270,0.0,0.0,40,0.00,,,0.00,WUHU216HW,2013-02-12 16:54:00,
2013-02-12 11:59:00,62.4,34.9,29.77,WNW,293,0.0,0.0,36,0.00,,,0.00,WUHU216HW,2013-02-12 16:59:00,
2013-02-12 12:00:00,43.7,41.0,29.53,NNW,338,0.0,0.0,90,0.08,,,0.08,WUHU216HW,2013-02-12 17:00:00,
2013-02-12 12:01:00,43.7,41.0,29.53,NNW,338,0.0,0.0,90,0.08,,,0.08,WUHU216HW,2013-02-12 17:01:00,
2013-02-12 12:03:00,43.7,41.0,29.53,NNW,338,0.0,0.0,90,0.08,,,0.08,WUHU216HW,2013-02-12 17:03:00,
2013-02-12 12:04:00,62.9,35.3,29.76,North,0,0.0,0.0,36,0.00,,,0.00,WUHU216HW,2013-02-12 17:04:00,
2013-02-12 12:05:00,43.7,41.0,29.53,NNW,338,0.0,0.0,90,0.08,,,0.08,WUHU216HW,2013-02-12 17:05:00,
2013-02-12 12:06:00,43.7,41.0,29.53,NNW,338,0.0,0.0,90,0.10,,,0.10,WUHU216HW,2013-02-12 17:06:00,
2013-02-12 12:07:00,43.7,41.0,29.53,NNW,338,0.0,0.0,90,0.10,,,0.10,WUHU216HW,2013-02-12 17:07:00,
2013-02-12 12:08:00,43.7,41.0,29.53,NNW,338,0.0,0.0,90,0.10,,,0.10,WUHU216HW,2013-02-12 17:08:00,
2013-02-12 12:09:00,63.3,35.7,29.76,West,270,0.0,0.0,38,0.00,,,0.00,WUHU216HW,2013-02-12 17:09:00,
2013-02-12 12:10:00,43.7,41.0,29.53,NNW,338,0.0,0.0,90,0.10,,,0.10,WUHU216HW,2013-02-12 17:10:00,
2013-02-12 12:11:00,43.7,41.0,29.53,NNW,338,0.0,0.0,90,0.10,,,0.10,WUHU216HW,2013-02-12 17:11:00,
2013-02-12 12:12:00,43.7,41.0,29.53,NNW,338,0.0,0.0,90,0.10,,,0.10,WUHU216HW,2013-02-12 17:12:00,
2013-02-12 12:13:00,43.8,41.1,29.53,NNW,338,0.0,0.0,90,0.10,,,0.10,WUHU216HW,2013-02-12 17:13:00,
2013-02-12 12:14:00,64.0,37.0,29.76,West,270,0.0,0.0,37,0.00,,,0.00,WUHU216HW,2013-02-12 17:14:00,
2013-02-12 12:15:00,43.7,41.0,29.53,NNW,338,0.0,0.0,90,0.10,,,0.10,WUHU216HW,2013-02-12 17:15:00,
2013-02-12 12:16:00,43.7,41.0,29.53,NNW,338,0.0,0.0,90,0.10,,,0.10,WUHU216HW,2013-02-12 17:16:00,
2013-02-12 12:18:00,43.8,41.1,29.52,NNW,338,0.0,0.0,90,0.10,,,0.10,WUHU216HW,2013-02-12 17:18:00,
2013-02-12 12:19:00,64.7,34.8,29.76,WNW,293,4.4,4.4,33,0.00,,,0.00,WUHU216HW,2013-02-12 17:19:00,
2013-02-12 12:20:00,43.7,41.0,29.53,NNW,338,0.0,0.0,90,0.10,,,0.10,WUHU216HW,2013-02-12 17:20:00,
2013-02-12 12:21:00,43.8,41.1,29.52,NNW,338,0.0,0.0,90,0.10,,,0.10,WUHU216HW,2013-02-12 17:21:00,
2013-02-12 12:22:00,43.8,41.1,29.52,NNW,338,0.0,0.0,90,0.10,,,0.10,WUHU216HW,2013-02-12 17:22:00,
2013-02-12 12:23:00,43.8,41.1,29.52,NNW,338,0.0,0.0,90,0.10,,,0.10,WUHU216HW,2013-02-12 17:23:00,
2013-02-12 12:24:00,64.4,35.2,29.75,West,270,0.0,4.4,34,0.00,,,0.00,WUHU216HW,2013-02-12 17:24:00,
2013-02-12 12:25:00,43.8,41.1,29.52,NNW,338,0.0,0.0,90,0.10,,,0.10,WUHU216HW,2013-02-12 17:25:00,
2013-02-12 12:26:00,43.8,41.1,29.52,NNW,338,0.0,0.0,90,0.10,,,0.10,WUHU216HW,2013-02-12 17:26:00,
2013-02-12 12:27:00,43.8,41.1,29.52,NNW,338,0.0,0.0,90,0.10,,,0.10,WUHU216HW,2013-02-12 17:27:00,
2013-02-12 12:28:00,43.8,41.1,29.52,NNW,338,0.0,0.0,90,0.10,,,0.10,WUHU216HW,2013-02-12 17:28:00,
2013-02-12 12:29:00,64.9,37.1,29.74,NNE,23,0.0,4.4,36,0.00,,,0.00,WUHU216HW,2013-02-12 17:29:00,
2013-02-12 12:32:00,43.8,41.1,29.52,NNW,338,0.0,0.0,90,0.10,,,0.10,WUHU216HW,2013-02-12 17:32:00,
2013-02-12 12:33:00,43.8,41.1,29.52,NNW,338,0.0,0.0,90,0.10,,,0.10,WUHU216HW,2013-02-12 17:33:00,
2013-02-12 12:34:00,66.0,36.7,29.73,WNW,293,0.0,2.2,32,0.00,,,0.00,WUHU216HW,2013-02-12 17:34:00,
2013-02-12 12:35:00,43.8,41.1,29.52,NNW,338,0.0,0.0,90,0.10,,,0.10,WUHU216HW,2013-02-12 17:35:00,
2013-02-12 12:36:00,43.8,41.1,29.51,NNW,338,0.0,0.0,90,0.10,,,0.10,WUHU216HW,2013-02-12 17:36:00,
2013-02-12 12:37:00,43.8,41.1,29.51,NNW,338,0.0,0.0,90,0.10,,,0.10,WUHU216HW,2013-02-12 17:37:00,
2013-02-12 12:38:00,43.8,41.1,29.52,NNW,338,0.0,0.0,90,0.10,,,0.10,WUHU216HW,2013-02-12 17:38:00,
2013-02-12 12:39:00,66.0,38.8,29.73,WNW,293,0.0,0.0,37,0.00,,,0.00,WUHU216HW,2013-02-12 17:39:00,
2013-02-12 12:40:00,43.8,41.1,29.51,NNW,338,0.0,0.0,90,0.10,,,0.10,WUHU216HW,2013-02-12 17:40:00,
2013-02-12 12:41:00,43.8,41.1,29.51,NNW,338,0.0,0.0,90,0.10,,,0.10,WUHU216HW,2013-02-12 17:41:00,
2013-02-12 12:42:00,43.8,41.1,29.51,NNW,338,0.0,0.0,90,0.10,,,0.10,WUHU216HW,2013-02-12 17:42:00,
2013-02-12 12:43:00,43.8,41.1,29.51,NNW,338,0.0,0.0,90,0.10,,,0.10,WUHU216HW,2013-02-12 17:43:00,
2013-02-12 12:44:00,66.2,35.4,29.72,WSW,248,0.0,0.0,32,0.00,,,0.00,WUHU216HW,2013-02-12 17:44:00,
2013-02-12 12:45:00,44.0,41.3,29.51,NNW,338,0.0,0.0,90,0.10,,,0.10,WUHU216HW,2013-02-12 17:45:00,
2013-02-12 12:46:00,44.0,41.3,29.52,NNW,338,0.0,0.0,90,0.10,,,0.10,WUHU216HW,2013-02-12 17:46:00,
2013-02-12 12:47:00,43.8,41.1,29.52,NNW,338,0.0,0.0,90,0.10,,,0.10,WUHU216HW,2013-02-12 17:47:00,
2013-02-12 12:48:00,43.8,41.1,29.52,NNW,338,0.0,0.0,90,0.10,,,0.10,WUHU216HW,2013-02-12 17:48:00,
2013-02-12 12:49:00,66.5,34.9,29.72,WSW,248,0.0,0.0,31,0.00,,,0.00,WUHU216HW,2013-02-12 17:49:00,
2013-02-12 12:50:00,43.8,41.1,29.52,NNW,338,0.0,0.0,90,0.10,,,0.10,WUHU216HW,2013-02-12 17:50:00,
2013-02-12 12:52:00,43.8,41.1,29.52,NNW,338,0.0,0.0,90,0.10,,,0.10,WUHU216HW,2013-02-12 17:52:00,
2013-02-12 12:53:00,43.8,41.1,29.52,NNW,338,0.0,0.0,90,0.10,,,0.10,WUHU216HW,2013-02-12 17:53:00,
2013-02-12 12:54:00,66.9,38.1,29.73,ENE,68,0.0,0.0,35,0.00,,,0.00,WUHU216HW,2013-02-12 17:54:00,
2013-02-12 12:55:00,44.0,41.3,29.51,NNW,338,0.0,0.0,90,0.10,,,0.10,WUHU216HW,2013-02-12 17:55:00,
2013-02-12 12:56:00,44.0,41.3,29.51,NNW,338,0.0,0.0,90,0.10,,,0.10,WUHU216HW,2013-02-12 17:56:00,
2013-02-12 12:57:00,44.0,41.3,29.51,NNW,338,0.0,0.0,90,0.10,,,0.10,WUHU216HW,2013-02-12 17:57:00,
2013-02-12 12:58:00,44.0,41.3,29.51,NNW,338,0.0,0.0,90,0.10,,,0.10,WUHU216HW,2013-02-12 17:58:00,
2013-02-12 12:59:00,44.0,41.3,29.51,NNW,338,0.0,0.0,90,0.10,,,0.10,WUHU216HW,2013-02-12 17:59:00,
2013-02-12 13:00:00,66.2,35.4,29.73,East,90,0.0,0.0,32,0.00,,,0.00,WUHU216HW,2013-02-12 18:00:00,
2013-02-12 13:01:00,44.2,41.5,29.51,NNW,338,0.0,0.0,90,0.10,,,0.10,WUHU216HW,2013-02-12 18:01:00,
2013-02-12 13:02:00,44.2,41.5,29.52,NNW,338,0.0,0.0,90,0.10,,,0.10,WUHU216HW,2013-02-12 18:02:00,
2013-02-12 13:03:00,44.2,41.5,29.52,NNW,338,0.0,0.0,90,0.10,,,0.10,WUHU216HW,2013-02-12 18:03:00,
2013-02-12 13:04:00,44.2,41.5,29.52,NNW,338,0.0,0.0,90,0.10,,,0.10,WUHU216HW,2013-02-12 18:04:00,
2013-02-12 13:05:00,66.0,34.5,29.73,WNW,293,0.0,3.1,31,0.00,,,0.00,WUHU216HW,2013-02-12 18:05:00,
2013-02-12 13:09:00,44.0,41.3,29.53,NNW,338,0.0,0.0,90,0.10,,,0.10,WUHU216HW,2013-02-12 18:09:00,
2013-02-12 13:10:00,65.6,36.3,29.73,West,270,0.0,3.1,34,0.00,,,0.00,WUHU216HW,2013-02-12 18:10:00,
2013-02-12 13:11:00,44.2,41.5,29.52,NNW,338,0.0,0.0,90,0.10,,,0.10,WUHU216HW,2013-02-12 18:11:00,
2013-02-12 13:12:00,44.2,41.5,29.53,NNW,338,0.0,0.0,90,0.10,,,0.10,WUHU216HW,2013-02-12 18:12:00,
2013-02-12 13:13:00,44.0,41.3,29.53,NNW,338,0.0,0.0,90,0.10,,,0.10,WUHU216HW,2013-02-12 18:13:00,
2013-02-12 13:14:00,44.0,41.3,29.53,NNW,338,0.0,0.0,90,0.10,,,0.10,WUHU216HW,2013-02-12 18:14:00,
2013-02-12 13:15:00,66.2,36.8,29.72,NE,45,0.0,0.0,34,0.00,,,0.00,WUHU216HW,2013-02-12 18:15:00,
2013-02-12 13:16:00,44.0,41.3,29.52,NNW,338,0.0,0.0,90,0.10,,,0.10,WUHU216HW,2013-02-12 18:16:00,
2013-02-12 13:17:00,44.0,41.3,29.52,NNW,338,0.0,0.0,90,0.10,,,0.10,WUHU216HW,2013-02-12 18:17:00,
2013-02-12 13:18:00,44.0,41.3,29.52,NNW,338,0.0,0.0,90,0.10,,,0.10,WUHU216HW,2013-02-12 18:18:00,
2013-02-12 13:19:00,44.0,41.3,29.52,NNW,338,0.0,0.0,90,0.10,,,0.10,WUHU216HW,2013-02-12 18:19:00,
2013-02-12 13:20:00,66.7,38.7,29.72,WNW,293,3.3,3.3,31,0.00,,,0.00,WUHU216HW,2013-02-12 18:20:00,
2013-02-12 13:21:00,44.0,41.3,29.52,NNW,338,0.0,0.0,90,0.00,,,0.10,WUHU216HW,2013-02-12 18:21:00,
2013-02-12 13:22:00,43.8,41.1,29.52,NNW,338,0.0,0.0,90,0.00,,,0.10,WUHU216HW,2013-02-12 18:22:00,
2013-02-12 13:23:00,43.8,41.1,29.53,NNW,338,0.0,0.0,90,0.00,,,0.10,WUHU216HW,2013-02-12 18:23:00,
2013-02-12 13:24:00,43.8,41.1,29.53,NNW,338,0.0,0.0,90,0.00,,,0.10,WUHU216HW,2013-02-12 18:24:00,
2013-02-12 13:25:00,66.0,36.7,29.72,WNW,293,0.0,3.3,34,0.00,,,0.00,WUHU216HW,2013-02-12 18:25:00,
2013-02-12 13:26:00,43.8,41.1,29.53,NNW,338,0.0,0.0,90,0.00,,,0.10,WUHU216HW,2013-02-12 18:26:00,
2013-02-12 13:27:00,43.8,41.1,29.52,NNW,338,0.0,0.0,90,0.00,,,0.10,WUHU216HW,2013-02-12 18:27:00,
2013-02-12 13:28:00,43.8,41.1,29.52,NNW,338,0.0,0.0,90,0.00,,,0.10,WUHU216HW,2013-02-12 18:28:00,
2013-02-12 13:29:00,43.8,41.1,29.52,NNW,338,0.0,0.0,90,0.00,,,0.10,WUHU216HW,2013-02-12 18:29:00,
2013-02-12 13:30:00,67.1,38.3,29.72,WNW,293,0.0,3.3,35,0.00,,,0.00,WUHU216HW,2013-02-12 18:30:00,
2013-02-12 13:32:00,43.8,41.1,29.52,NNW,338,0.0,0.0,90,0.00,,,0.10,WUHU216HW,2013-02-12 18:32:00,
2013-02-12 13:33:00,43.8,41.1,29.52,NNW,338,0.0,0.0,90,0.00,,,0.10,WUHU216HW,2013-02-12 18:33:00,
2013-02-12 13:34:00,43.8,41.1,29.52,NNW,338,0.0,0.0,90,0.00,,,0.10,WUHU216HW,2013-02-12 18:34:00,
2013-02-12 13:35:00,66.9,36.0,29.72,WNW,293,0.0,0.0,33,0.00,,,0.00,WUHU216HW,2013-02-12 18:35:00,
2013-02-12 13:36:00,43.8,41.1,29.52,NNW,338,0.0,0.0,90,0.00,,,0.10,WUHU216HW,2013-02-12 18:36:00,
2013-02-12 13:37:00,43.8,41.1,29.52,NNW,338,0.0,0.0,90,0.00,,,0.10,WUHU216HW,2013-02-12 18:37:00,
2013-02-12 13:38:00,43.8,41.1,29.52,NNW,338,0.0,0.0,90,0.00,,,0.10,WUHU216HW,2013-02-12 18:38:00,
2013-02-12 13:39:00,43.8,41.1,29.52,NNW,338,0.0,0.0,90,0.00,,,0.10,WUHU216HW,2013-02-12 18:39:00,
2013-02-12 13:40:00,66.0,35.2,29.72,WSW,248,0.0,0.0,32,0.00,,,0.00,WUHU216HW,2013-02-12 18:40:00,
2013-02-12 13:41:00,43.8,41.1,29.53,NNW,338,0.0,0.0,90,0.00,,,0.10,WUHU216HW,2013-02-12 18:41:00,
2013-02-12 13:42:00,43.8,41.1,29.53,NNW,338,0.0,0.0,90,0.00,,,0.10,WUHU216HW,2013-02-12 18:42:00,
2013-02-12 13:43:00,43.8,41.1,29.53,NNW,338,0.0,0.0,90,0.00,,,0.10,WUHU216HW,2013-02-12 18:43:00,
2013-02-12 13:44:00,43.8,41.1,29.53,NNW,338,0.0,0.0,90,0.00,,,0.10,WUHU216HW,2013-02-12 18:44:00,
2013-02-12 13:45:00,66.0,35.2,29.71,West,270,0.0,0.0,31,0.00,,,0.00,WUHU216HW,2013-02-12 18:45:00,
2013-02-12 13:46:00,43.8,41.1,29.53,NNW,338,0.0,0.0,90,0.00,,,0.10,WUHU216HW,2013-02-12 18:46:00,
2013-02-12 13:47:00,43.8,41.1,29.53,NNW,338,0.0,0.0,90,0.00,,,0.10,WUHU216HW,2013-02-12 18:47:00,
2013-02-12 13:48:00,43.8,41.1,29.53,NNW,338,0.0,0.0,90,0.00,,,0.10,WUHU216HW,2013-02-12 18:48:00,
2013-02-12 13:49:00,43.8,41.1,29.53,NNW,338,0.0,0.0,90,0.00,,,0.10,WUHU216HW,2013-02-12 18:49:00,
2013-02-12 13:50:00,65.4,34.0,29.70,WNW,293,0.0,0.0,31,0.00,,,0.00,WUHU216HW,2013-02-12 18:50:00,
2013-02-12 13:51:00,43.8,41.1,29.54,NNW,338,0.0,0.0,90,0.00,,,0.10,WUHU216HW,2013-02-12 18:51:00,
2013-02-12 13:52:00,43.8,41.1,29.54,NNW,338,0.0,0.0,90,0.00,,,0.10,WUHU216HW,2013-02-12 18:52:00,
2013-02-12 13:53:00,43.8,41.1,29.54,NNW,338,0.0,0.0,90,0.00,,,0.10,WUHU216HW,2013-02-12 18:53:00,
2013-02-12 13:54:00,43.8,41.1,29.54,NNW,338,0.0,0.0,90,0.00,,,0.10,WUHU216HW,2013-02-12 18:54:00,
2013-02-12 13:55:00,65.4,34.0,29.69,WNW,293,0.0,0.0,33,0.00,,,0.00,WUHU216HW,2013-02-12 18:55:00,
2013-02-12 13:56:00,43.8,41.1,29.54,NNW,338,0.0,0.0,90,0.00,,,0.10,WUHU216HW,2013-02-12 18:56:00,
2013-02-12 13:57:00,43.8,41.1,29.54,NNW,338,0.0,0.0,90,0.00,,,0.10,WUHU216HW,2013-02-12 18:57:00,
2013-02-12 13:58:00,43.8,41.1,29.54,NNW,338,0.0,0.0,90,0.00,,,0.10,WUHU216HW,2013-02-12 18:58:00,
2013-02-12 13:59:00,43.8,41.1,29.54,NNW,338,0.0,0.0,90,0.00,,,0.10,WUHU216HW,2013-02-12 18:59:00,
2013-02-12 14:00:00,65.1,35.8,29.69,WNW,293,0.0,0.0,34,0.00,,,0.00,WUHU216HW,2013-02-12 19:00:00,
2013-02-12 14:01:00,43.8,41.1,29.54,NNW,338,0.0,0.0,90,0.00,,,0.10,WUHU216HW,2013-02-12 19:01:00,
2013-02-12 14:02:00,43.8,41.1,29.54,NNW,338,0.0,0.0,90,0.00,,,0.10,WUHU216HW,2013-02-12 19:02:00,
2013-02-12 14:03:00,43.8,41.1,29.54,NNW,338,0.0,0.0,90,0.00,,,0.10,WUHU216HW,2013-02-12 19:03:00,
2013-02-12 14:04:00,43.8,41.1,29.55,NNW,338,0.0,0.0,90,0.00,,,0.10,WUHU216HW,2013-02-12 19:04:00,
2013-02-12 14:05:00,64.9,34.2,29.69,WNW,293,0.0,0.0,32,0.00,,,0.00,WUHU216HW,2013-02-12 19:05:00,
2013-02-12 14:06:00,43.8,41.1,29.55,NNW,338,0.0,0.0,90,0.00,,,0.10,WUHU216HW,2013-02-12 19:06:00,
2013-02-12 14:07:00,43.8,41.1,29.55,NNW,338,0.0,0.0,90,0.00,,,0.10,WUHU216HW,2013-02-12 19:07:00,
2013-02-12 14:08:00,43.8,41.1,29.55,NNW,338,0.0,0.0,90,0.00,,,0.10,WUHU216HW,2013-02-12 19:08:00,
2013-02-12 14:09:00,43.7,41.0,29.55,NNW,338,0.0,0.0,90,0.00,,,0.10,WUHU216HW,2013-02-12 19:09:00,
2013-02-12 14:10:00,64.5,33.9,29.68,WNW,293,0.0,0.0,32,0.00,,,0.00,WUHU216HW,2013-02-12 19:10:00,
2013-02-12 14:11:00,43.7,41.0,29.55,NNW,338,0.0,0.0,90,0.00,,,0.10,WUHU216HW,2013-02-12 19:11:00,
2013-02-12 14:12:00,43.7,41.0,29.55,NNW,338,0.0,0.0,90,0.00,,,0.10,WUHU216HW,2013-02-12 19:12:00,
2013-02-12 14:13:00,43.8,41.1,29.55,NNW,338,0.0,0.0,90,0.00,,,0.10,WUHU216HW,2013-02-12 19:13:00,
2013-02-12 14:14:00,43.8,41.1,29.55,NNW,338,0.0,0.0,90,0.00,,,0.10,WUHU216HW,2013-02-12 19:14:00,
2013-02-12 14:15:00,64.2,34.3,29.68,West,270,0.0,0.0,33,0.00,,,0.00,WUHU216HW,2013-02-12 19:15:00,
2013-02-12 14:16:00,43.8,41.1,29.55,NNW,338,0.0,0.0,90,0.00,,,0.10,WUHU216HW,2013-02-12 19:16:00,
2013-02-12 14:17:00,43.8,41.1,29.55,NNW,338,0.0,0.0,90,0.00,,,0.10,WUHU216HW,2013-02-12 19:17:00,
2013-02-12 14:18:00,43.8,41.1,29.55,NNW,338,0.0,0.0,90,0.00,,,0.10,WUHU216HW,2013-02-12 19:18:00,
2013-02-12 14:19:00,43.8,41.1,29.55,NNW,338,0.0,0.0,90,0.00,,,0.10,WUHU216HW,2013-02-12 19:19:00,
2013-02-12 14:20:00,64.2,34.3,29.68,West,270,0.0,0.0,34,0.00,,,0.00,WUHU216HW,2013-02-12 19:20:00,
2013-02-12 14:21:00,43.8,41.1,29.55,NNW,338,0.0,0.0,90,0.00,,,0.10,WUHU216HW,2013-02-12 19:21:00,
2013-02-12 14:22:00,43.8,41.1,29.55,NNW,338,0.0,0.0,90,0.00,,,0.10,WUHU216HW,2013-02-12 19:22:00,
2013-02-12 14:23:00,43.8,41.1,29.55,NNW,338,0.0,0.0,90,0.00,,,0.10,WUHU216HW,2013-02-12 19:23:00,
2013-02-12 14:24:00,43.8,41.1,29.55,NNW,338,0.0,0.0,90,0.00,,,0.10,WUHU216HW,2013-02-12 19:24:00,
2013-02-12 14:25:00,43.8,41.1,29.55,NNW,338,0.0,0.0,90,0.00,,,0.10,WUHU216HW,2013-02-12 19:25:00,
2013-02-12 14:26:00,64.5,35.4,29.68,West,270,0.0,0.0,34,0.00,,,0.00,WUHU216HW,2013-02-12 19:26:00,
2013-02-12 14:27:00,43.8,41.1,29.55,NNW,338,0.0,0.0,90,0.00,,,0.10,WUHU216HW,2013-02-12 19:27:00,
2013-02-12 14:28:00,43.8,41.1,29.55,NNW,338,0.0,0.0,90,0.00,,,0.10,WUHU216HW,2013-02-12 19:28:00,
2013-02-12 14:30:00,43.8,41.1,29.56,NNW,338,0.0,0.0,90,0.00,,,0.10,WUHU216HW,2013-02-12 19:30:00,
2013-02-12 14:31:00,64.4,34.5,29.69,West,270,0.0,0.0,34,0.00,,,0.00,WUHU216HW,2013-02-12 19:31:00,
2013-02-12 14:32:00,43.8,41.1,29.55,NNW,338,0.0,0.0,90,0.00,,,0.10,WUHU216HW,2013-02-12 19:32:00,
2013-02-12 14:33:00,43.8,41.1,29.55,NNW,338,0.0,0.0,90,0.00,,,0.10,WUHU216HW,2013-02-12 19:33:00,
2013-02-12 14:34:00,43.8,41.1,29.55,NNW,338,0.0,0.0,90,0.00,,,0.10,WUHU216HW,2013-02-12 19:34:00,
2013-02-12 14:35:00,43.8,41.1,29.55,NNW,338,0.0,0.0,90,0.00,,,0.10,WUHU216HW,2013-02-12 19:35:00,
2013-02-12 14:36:00,64.0,34.1,29.69,WNW,293,0.0,0.0,34,0.00,,,0.00,WUHU216HW,2013-02-12 19:36:00,
2013-02-12 14:37:00,43.7,41.0,29.56,NNW,338,0.0,0.0,90,0.00,,,0.10,WUHU216HW,2013-02-12 19:37:00,
2013-02-12 14:38:00,43.7,41.0,29.56,NNW,338,0.0,0.0,90,0.00,,,0.10,WUHU216HW,2013-02-12 19:38:00,
2013-02-12 14:40:00,43.7,41.0,29.55,NNW,338,0.0,0.0,90,0.00,,,0.10,WUHU216HW,2013-02-12 19:40:00,
2013-02-12 14:41:00,64.0,34.1,29.69,WNW,293,0.0,0.0,37,0.00,,,0.00,WUHU216HW,2013-02-12 19:41:00,
2013-02-12 14:42:00,43.7,41.0,29.55,NNW,338,0.0,0.0,90,0.00,,,0.10,WUHU216HW,2013-02-12 19:42:00,
2013-02-12 14:43:00,43.7,41.0,29.56,NNW,338,0.0,0.0,90,0.00,,,0.10,WUHU216HW,2013-02-12 19:43:00,
2013-02-12 14:44:00,43.7,41.0,29.55,NNW,338,0.0,0.0,90,0.00,,,0.10,WUHU216HW,2013-02-12 19:44:00,
2013-02-12 14:45:00,43.5,40.8,29.55,NNW,338,0.0,0.0,90,0.00,,,0.10,WUHU216HW,2013-02-12 19:45:00,
2013-02-12 14:46:00,63.6,35.3,29.69,West,270,0.0,0.0,35,0.00,,,0.00,WUHU216HW,2013-02-12 19:46:00,
2013-02-12 14:47:00,43.5,40.8,29.55,NNW,338,0.0,0.0,90,0.00,,,0.10,WUHU216HW,2013-02-12 19:47:00,
2013-02-12 14:48:00,43.5,40.8,29.55,NNW,338,0.0,0.0,90,0.00,,,0.10,WUHU216HW,2013-02-12 19:48:00,
2013-02-12 14:49:00,43.5,40.8,29.55,NNW,338,0.0,0.0,90,0.00,,,0.10,WUHU216HW,2013-02-12 19:49:00,
2013-02-12 14:50:00,43.5,40.8,29.55,NNW,338,0.0,0.0,90,0.00,,,0.10,WUHU216HW,2013-02-12 19:50:00,
2013-02-12 14:51:00,63.5,34.4,29.69,West,270,0.0,0.0,35,0.00,,,0.00,WUHU216HW,2013-02-12 19:51:00,
2013-02-12 14:52:00,43.3,40.6,29.56,NNW,338,0.0,0.0,90,0.00,,,0.10,WUHU216HW,2013-02-12 19:52:00,
2013-02-12 14:53:00,43.3,40.6,29.56,NNW,338,0.0,0.0,90,0.00,,,0.10,WUHU216HW,2013-02-12 19:53:00,
2013-02-12 14:54:00,43.3,40.6,29.56,NNW,338,0.0,0.0,90,0.00,,,0.10,WUHU216HW,2013-02-12 19:54:00,
2013-02-12 14:55:00,43.3,40.6,29.56,NNW,338,0.0,0.0,90,0.00,,,0.10,WUHU216HW,2013-02-12 19:55:00,
2013-02-12 14:56:00,63.3,34.2,29.69,WNW,293,4.0,4.0,34,0.00,,,0.00,WUHU216HW,2013-02-12 19:56:00,
2013-02-12 14:57:00,43.3,40.6,29.56,NNW,338,0.0,0.0,90,0.00,,,0.10,WUHU216HW,2013-02-12 19:57:00,
2013-02-12 14:58:00,43.1,40.4,29.56,NNW,338,0.0,0.0,90,0.00,,,0.10,WUHU216HW,2013-02-12 19:58:00,
2013-02-12 14:59:00,43.1,40.4,29.56,NNW,338,0.0,0.0,90,0.00,,,0.10,WUHU216HW,2013-02-12 19:59:00,
2013-02-12 15:00:00,43.1,40.4,29.56,NNW,338,0.0,0.0,90,0.00,,,0.10,WUHU216HW,2013-02-12 20:00:00,
2013-02-12 15:01:00,62.7,33.7,29.69,WNW,293,0.0,4.0,35,0.00,,,0.00,WUHU216HW,2013-02-12 20:01:00,
2013-02-12 15:02:00,42.9,40.2,29.56,NNW,338,0.0,0.0,90,0.00,,,0.10,WUHU216HW,2013-02-12 20:02:00,
2013-02-12 15:03:00,42.9,40.2,29.56,NNW,338,0.0,0.0,90,0.00,,,0.10,WUHU216HW,2013-02-12 20:03:00,
2013-02-12 15:04:00,42.9,40.2,29.56,NNW,338,0.0,0.0,90,0.00,,,0.10,WUHU216HW,2013-02-12 20:04:00,
2013-02-12 15:05:00,42.9,40.2,29.56,NNW,338,0.0,0.0,90,0.00,,,0.10,WUHU216HW,2013-02-12 20:05:00,
2013-02-12 15:06:00,62.7,33.7,29.69,WNW,293,0.0,4.0,36,0.00,,,0.00,WUHU216HW,2013-02-12 20:06:00,
2013-02-12 15:07:00,42.8,40.1,29.56,NNW,338,0.0,0.0,90,0.00,,,0.10,WUHU216HW,2013-02-12 20:07:00,
2013-02-12 15:08:00,42.8,40.1,29.56,NNW,338,0.0,0.0,90,0.00,,,0.10,WUHU216HW,2013-02-12 20:08:00,
2013-02-12 15:09:00,42.8,40.1,29.56,NNW,338,0.0,0.0,90,0.00,,,0.10,WUHU216HW,2013-02-12 20:09:00,
2013-02-12 15:10:00,42.8,40.1,29.56,NNW,338,0.0,0.0,90,0.00,,,0.10,WUHU216HW,2013-02-12 20:10:00,
2013-02-12 15:11:00,62.2,33.2,29.69,WNW,293,0.0,0.0,34,0.00,,,0.00,WUHU216HW,2013-02-12 20:11:00,
2013-02-12 15:12:00,42.6,39.9,29.57,NNW,338,0.0,0.0,90,0.00,,,0.10,WUHU216HW,2013-02-12 20:12:00,
2013-02-12 15:13:00,42.6,39.9,29.57,NNW,338,0.0,0.0,90,0.00,,,0.10,WUHU216HW,2013-02-12 20:13:00,
2013-02-12 15:14:00,42.6,39.9,29.56,NNW,338,0.0,0.0,90,0.00,,,0.10,WUHU216HW,2013-02-12 20:14:00,
2013-02-12 15:15:00,42.6,39.9,29.57,NNW,338,0.0,0.0,90,0.00,,,0.10,WUHU216HW,2013-02-12 20:15:00,
2013-02-12 15:16:00,61.8,33.6,29.69,WNW,293,0.0,0.0,35,0.00,,,0.00,WUHU216HW,2013-02-12 20:16:00,
2013-02-12 15:17:00,42.6,39.9,29.57,NNW,338,0.0,0.0,90,0.00,,,0.10,WUHU216HW,2013-02-12 20:17:00,
2013-02-12 15:20:00,42.4,39.7,29.57,NNW,338,0.0,0.0,90,0.00,,,0.10,WUHU216HW,2013-02-12 20:20:00,
2013-02-12 15:21:00,62.2,34.7,29.69,WNW,293,0.0,0.0,36,0.00,,,0.00,WUHU216HW,2013-02-12 20:21:00,
2013-02-12 15:22:00,42.2,39.5,29.56,NNW,338,0.0,0.0,90,0.00,,,0.10,WUHU216HW,2013-02-12 20:22:00,
2013-02-12 15:24:00,42.0,39.3,29.57,NNW,338,0.0,0.0,90,0.00,,,0.10,WUHU216HW,2013-02-12 20:24:00,
2013-02-12 15:25:00,42.0,39.3,29.57,NNW,338,0.0,0.0,90,0.00,,,0.10,WUHU216HW,2013-02-12 20:25:00,
2013-02-12 15:26:00,61.8,34.4,29.69,WNW,293,0.0,0.0,35,0.00,,,0.00,WUHU216HW,2013-02-12 20:26:00,
2013-02-12 15:27:00,41.9,39.2,29.57,NNW,338,0.0,0.0,90,0.00,,,0.10,WUHU216HW,2013-02-12 20:27:00,
2013-02-12 15:28:00,41.9,39.2,29.57,NNW,338,0.0,0.0,90,0.00,,,0.10,WUHU216HW,2013-02-12 20:28:00,
2013-02-12 15:29:00,41.9,39.2,29.57,NNW,338,0.0,0.0,90,0.00,,,0.10,WUHU216HW,2013-02-12 20:29:00,
2013-02-12 15:30:00,41.9,39.2,29.57,NNW,338,0.0,0.0,90,0.00,,,0.10,WUHU216HW,2013-02-12 20:30:00,
2013-02-12 15:31:00,61.5,34.8,29.69,WNW,293,0.0,0.0,37,0.00,,,0.00,WUHU216HW,2013-02-12 20:31:00,
2013-02-12 15:32:00,41.9,39.2,29.57,NNW,338,0.0,0.0,90,0.00,,,0.10,WUHU216HW,2013-02-12 20:32:00,
2013-02-12 15:33:00,41.9,39.2,29.57,NNW,338,0.0,0.0,90,0.00,,,0.10,WUHU216HW,2013-02-12 20:33:00,
2013-02-12 15:34:00,41.9,39.2,29.57,NNW,338,0.0,0.0,90,0.00,,,0.10,WUHU216HW,2013-02-12 20:34:00,
2013-02-12 15:35:00,41.9,39.2,29.57,NNW,338,0.0,0.0,90,0.00,,,0.10,WUHU216HW,2013-02-12 20:35:00,
2013-02-12 15:36:00,61.3,33.9,29.70,WNW,293,0.0,0.0,36,0.00,,,0.00,WUHU216HW,2013-02-12 20:36:00,
2013-02-12 15:37:00,41.7,39.0,29.57,NNW,338,0.0,0.0,90,0.00,,,0.10,WUHU216HW,2013-02-12 20:37:00,
2013-02-12 15:38:00,41.7,39.0,29.57,NNW,338,0.0,0.0,90,0.00,,,0.10,WUHU216HW,2013-02-12 20:38:00,
2013-02-12 15:39:00,41.7,39.0,29.57,NNW,338,0.0,0.0,90,0.00,,,0.10,WUHU216HW,2013-02-12 20:39:00,
2013-02-12 15:40:00,41.7,39.0,29.57,NNW,338,0.0,0.0,90,0.00,,,0.10,WUHU216HW,2013-02-12 20:40:00,
2013-02-12 15:41:00,41.7,39.0,29.57,NNW,338,0.0,0.0,90,0.00,,,0.10,WUHU216HW,2013-02-12 20:41:00,
2013-02-12 15:42:00,61.1,34.4,29.69,WNW,293,0.0,0.0,37,0.00,,,0.00,WUHU216HW,2013-02-12 20:42:00,
2013-02-12 15:43:00,41.7,39.0,29.57,NNW,338,0.0,0.0,90,0.00,,,0.10,WUHU216HW,2013-02-12 20:43:00,
2013-02-12 15:44:00,41.7,39.0,29.57,NNW,338,0.0,0.0,90,0.00,,,0.10,WUHU216HW,2013-02-12 20:44:00,
2013-02-12 15:46:00,41.7,39.0,29.57,NNW,338,0.0,0.0,90,0.00,,,0.10,WUHU216HW,2013-02-12 20:46:00,
2013-02-12 15:47:00,60.8,33.4,29.70,WNW,293,0.0,0.0,36,0.00,,,0.00,WUHU216HW,2013-02-12 20:47:00,
2013-02-12 15:49:00,41.7,39.0,29.58,NNW,338,0.0,0.0,90,0.00,,,0.10,WUHU216HW,2013-02-12 20:49:00,
2013-02-12 15:50:00,41.7,39.0,29.58,NNW,338,0.0,0.0,90,0.00,,,0.10,WUHU216HW,2013-02-12 20:50:00,
2013-02-12 15:52:00,60.6,33.2,29.70,WNW,293,0.0,0.0,36,0.00,,,0.00,WUHU216HW,2013-02-12 20:52:00,
2013-02-12 15:53:00,41.7,39.0,29.58,NNW,338,0.0,0.0,90,0.00,,,0.10,WUHU216HW,2013-02-12 20:53:00,
2013-02-12 15:54:00,41.7,39.0,29.58,NNW,338,0.0,0.0,90,0.00,,,0.10,WUHU216HW,2013-02-12 20:54:00,
2013-02-12 15:55:00,41.7,39.0,29.59,NNW,338,0.0,0.0,90,0.00,,,0.10,WUHU216HW,2013-02-12 20:55:00,
2013-02-12 15:56:00,41.7,39.0,29.59,NNW,338,0.0,0.0,90,0.00,,,0.10,WUHU216HW,2013-02-12 20:56:00,
2013-02-12 15:57:00,60.4,32.4,29.69,WNW,293,0.0,0.0,36,0.00,,,0.00,WUHU216HW,2013-02-12 20:57:00,
2013-02-12 15:58:00,41.7,39.0,29.59,NNW,338,0.0,0.0,90,0.00,,,0.10,WUHU216HW,2013-02-12 20:58:00,
2013-02-12 15:59:00,41.7,39.0,29.59,NNW,338,0.0,0.0,90,0.00,,,0.10,WUHU216HW,2013-02-12 20:59:00,
2013-02-12 16:00:00,41.7,39.0,29.59,NNW,338,0.0,0.0,90,0.00,,,0.10,WUHU216HW,2013-02-12 21:00:00,
2013-02-12 16:01:00,41.7,39.0,29.59,NNW,338,0.0,0.0,90,0.00,,,0.10,WUHU216HW,2013-02-12 21:01:00,
2013-02-12 16:02:00,60.4,32.4,29.68,SW,225,0.0,0.0,35,0.00,,,0.00,WUHU216HW,2013-02-12 21:02:00,
2013-02-12 16:03:00,41.7,39.0,29.59,NNW,338,0.0,0.0,90,0.00,,,0.10,WUHU216HW,2013-02-12 21:03:00,
2013-02-12 16:04:00,41.7,39.0,29.59,NNW,338,0.0,0.0,90,0.00,,,0.10,WUHU216HW,2013-02-12 21:04:00,
2013-02-12 16:05:00,41.7,39.0,29.59,NNW,338,0.0,0.0,90,0.00,,,0.10,WUHU216HW,2013-02-12 21:05:00,
2013-02-12 16:06:00,41.7,39.0,29.59,NNW,338,0.0,0.0,90,0.00,,,0.10,WUHU216HW,2013-02-12 21:06:00,
2013-02-12 16:07:00,60.2,34.4,29.69,WSW,248,0.0,0.0,38,0.00,,,0.00,WUHU216HW,2013-02-12 21:07:00,
2013-02-12 16:08:00,41.9,39.2,29.59,NNW,338,0.0,0.0,90,0.00,,,0.10,WUHU216HW,2013-02-12 21:08:00,
2013-02-12 16:09:00,41.9,39.2,29.59,NNW,338,0.0,0.0,90,0.00,,,0.10,WUHU216HW,2013-02-12 21:09:00,
2013-02-12 16:10:00,41.9,39.2,29.59,NNW,338,0.0,0.0,90,0.00,,,0.10,WUHU216HW,2013-02-12 21:10:00,
2013-02-12 16:11:00,42.0,39.3,29.59,NNW,338,0.0,0.0,90,0.00,,,0.10,WUHU216HW,2013-02-12 21:11:00,
2013-02-12 16:12:00,60.0,32.8,29.69,West,270,0.0,0.0,36,0.00,,,0.00,WUHU216HW,2013-02-12 21:12:00,
2013-02-12 16:13:00,42.0,39.3,29.59,NNW,338,0.0,0.0,90,0.00,,,0.10,WUHU216HW,2013-02-12 21:13:00,
2013-02-12 16:15:00,42.0,39.3,29.60,NNW,338,0.0,0.0,90,0.00,,,0.10,WUHU216HW,2013-02-12 21:15:00,
2013-02-12 16:16:00,42.0,39.3,29.60,NNW,338,0.0,0.0,89,0.00,,,0.10,WUHU216HW,2013-02-12 21:16:00,
2013-02-12 16:17:00,59.7,32.5,29.69,WNW,293,0.0,0.0,36,0.00,,,0.00,WUHU216HW,2013-02-12 21:17:00,
2013-02-12 16:18:00,42.2,39.5,29.60,NNW,338,0.0,0.0,90,0.00,,,0.10,WUHU216HW,2013-02-12 21:18:00,
2013-02-12 16:19:00,42.2,39.5,29.60,NNW,338,0.0,0.0,90,0.00,,,0.10,WUHU216HW,2013-02-12 21:19:00,
2013-02-12 16:20:00,42.4,39.7,29.60,NNW,338,0.0,0.0,90,0.00,,,0.10,WUHU216HW,2013-02-12 21:20:00,
2013-02-12 16:21:00,42.4,39.7,29.60,NNW,338,0.0,0.0,90,0.00,,,0.10,WUHU216HW,2013-02-12 21:21:00,
2013-02-12 16:22:00,59.5,32.3,29.69,WNW,293,0.0,0.0,36,0.00,,,0.00,WUHU216HW,2013-02-12 21:22:00,
2013-02-12 16:23:00,42.4,39.7,29.60,NNW,338,0.0,0.0,90,0.00,,,0.10,WUHU216HW,2013-02-12 21:23:00,
2013-02-12 16:24:00,42.6,39.6,29.60,NNW,338,0.0,0.0,89,0.00,,,0.10,WUHU216HW,2013-02-12 21:24:00,
2013-02-12 16:25:00,42.6,39.6,29.60,NNW,338,0.0,0.0,89,0.00,,,0.10,WUHU216HW,2013-02-12 21:25:00,
2013-02-12 16:26:00,42.8,39.7,29.60,NNW,338,0.0,0.0,89,0.00,,,0.10,WUHU216HW,2013-02-12 21:26:00,
2013-02-12 16:27:00,59.1,32.7,29.69,WNW,293,0.0,0.0,37,0.00,,,0.00,WUHU216HW,2013-02-12 21:27:00,
2013-02-12 16:28:00,42.8,39.7,29.60,NNW,338,0.0,0.0,89,0.00,,,0.10,WUHU216HW,2013-02-12 21:28:00,
2013-02-12 16:29:00,42.9,39.9,29.60,NNW,338,0.0,0.0,89,0.00,,,0.10,WUHU216HW,2013-02-12 21:29:00,
2013-02-12 16:30:00,43.1,40.1,29.60,NNW,338,0.0,0.0,89,0.00,,,0.10,WUHU216HW,2013-02-12 21:30:00,
2013-02-12 16:31:00,43.1,40.1,29.60,NNW,338,0.0,0.0,89,0.00,,,0.10,WUHU216HW,2013-02-12 21:31:00,
2013-02-12 16:32:00,59.0,33.2,29.69,WNW,293,0.0,0.0,38,0.00,,,0.00,WUHU216HW,2013-02-12 21:32:00,
2013-02-12 16:33:00,43.3,40.3,29.60,NNW,338,0.0,0.0,89,0.00,,,0.10,WUHU216HW,2013-02-12 21:33:00,
2013-02-12 16:34:00,43.3,40.3,29.60,NNW,338,0.0,0.0,89,0.00,,,0.10,WUHU216HW,2013-02-12 21:34:00,
2013-02-12 16:35:00,43.5,40.5,29.60,NNW,338,0.0,0.0,89,0.00,,,0.10,WUHU216HW,2013-02-12 21:35:00,
2013-02-12 16:36:00,43.5,40.5,29.60,NNW,338,0.0,0.0,89,0.00,,,0.10,WUHU216HW,2013-02-12 21:36:00,
2013-02-12 16:37:00,59.0,33.2,29.69,WNW,293,0.0,0.0,38,0.00,,,0.00,WUHU216HW,2013-02-12 21:37:00,
2013-02-12 16:38:00,43.8,41.1,29.61,NNW,338,0.0,0.0,90,0.00,,,0.10,WUHU216HW,2013-02-12 21:38:00,
2013-02-12 16:39:00,44.0,41.3,29.61,NNW,338,0.0,0.0,90,0.00,,,0.10,WUHU216HW,2013-02-12 21:39:00,
2013-02-12 16:40:00,44.0,41.3,29.61,NNW,338,0.0,0.0,90,0.00,,,0.10,WUHU216HW,2013-02-12 21:40:00,
2013-02-12 16:41:00,44.2,41.5,29.61,NNW,338,0.0,0.0,90,0.00,,,0.10,WUHU216HW,2013-02-12 21:41:00,
2013-02-12 16:42:00,58.8,33.8,29.69,WNW,293,0.0,0.0,39,0.00,,,0.00,WUHU216HW,2013-02-12 21:42:00,
2013-02-12 16:45:00,44.7,42.0,29.61,NNW,338,0.0,0.0,90,0.00,,,0.10,WUHU216HW,2013-02-12 21:45:00,
2013-02-12 16:46:00,44.7,42.0,29.61,NNW,338,0.0,0.0,90,0.00,,,0.10,WUHU216HW,2013-02-12 21:46:00,
2013-02-12 16:47:00,58.8,33.8,29.70,WNW,293,0.0,0.0,40,0.00,,,0.00,WUHU216HW,2013-02-12 21:47:00,
2013-02-12 16:48:00,44.7,42.0,29.62,NNW,338,0.0,0.0,90,0.00,,,0.10,WUHU216HW,2013-02-12 21:48:00,
2013-02-12 16:49:00,44.7,42.0,29.62,NNW,338,0.0,0.0,90,0.00,,,0.10,WUHU216HW,2013-02-12 21:49:00,
2013-02-12 16:50:00,44.9,42.2,29.62,NNW,338,0.0,0.0,90,0.00,,,0.10,WUHU216HW,2013-02-12 21:50:00,
2013-02-12 16:51:00,44.9,42.2,29.63,NNW,338,0.0,0.0,90,0.00,,,0.10,WUHU216HW,2013-02-12 21:51:00,
2013-02-12 16:52:00,58.2,34.0,29.69,WNW,293,0.0,0.0,40,0.00,,,0.00,WUHU216HW,2013-02-12 21:52:00,
2013-02-12 16:53:00,45.3,42.6,29.62,NNW,338,0.0,0.0,90,0.00,,,0.10,WUHU216HW,2013-02-12 21:53:00,
2013-02-12 16:54:00,45.3,42.6,29.62,NNW,338,0.0,0.0,90,0.00,,,0.10,WUHU216HW,2013-02-12 21:54:00,
2013-02-12 16:55:00,45.3,42.6,29.63,NNW,338,0.0,0.0,90,0.00,,,0.10,WUHU216HW,2013-02-12 21:55:00,
2013-02-12 16:56:00,45.3,42.6,29.63,NNW,338,0.0,0.0,90,0.00,,,0.10,WUHU216HW,2013-02-12 21:56:00,
2013-02-12 16:57:00,58.2,34.0,29.69,WNW,293,0.0,0.0,41,0.00,,,0.00,WUHU216HW,2013-02-12 21:57:00,
2013-02-12 16:58:00,45.6,42.9,29.63,WNW,293,0.0,0.0,90,0.00,,,0.10,WUHU216HW,2013-02-12 21:58:00,
2013-02-12 17:00:00,45.8,43.1,29.63,WNW,293,0.0,0.0,90,0.00,,,0.10,WUHU216HW,2013-02-12 22:00:00,
2013-02-12 17:01:00,45.8,43.1,29.63,WNW,293,0.0,0.0,90,0.00,,,0.10,WUHU216HW,2013-02-12 22:01:00,
2013-02-12 17:02:00,58.1,33.8,29.70,WNW,293,0.0,0.0,40,0.00,,,0.00,WUHU216HW,2013-02-12 22:02:00,
2013-02-12 17:04:00,46.0,43.3,29.63,WNW,293,0.0,0.0,90,0.00,,,0.10,WUHU216HW,2013-02-12 22:04:00,
2013-02-12 17:05:00,46.0,43.3,29.63,WNW,293,0.0,0.0,90,0.00,,,0.10,WUHU216HW,2013-02-12 22:05:00,
2013-02-12 17:06:00,46.0,43.3,29.63,WNW,293,0.0,0.0,90,0.00,,,0.10,WUHU216HW,2013-02-12 22:06:00,
2013-02-12 17:07:00,57.9,34.8,29.70,WNW,293,0.0,0.0,42,0.00,,,0.00,WUHU216HW,2013-02-12 22:07:00,
2013-02-12 17:08:00,46.0,43.3,29.63,WNW,293,0.0,0.0,90,0.00,,,0.10,WUHU216HW,2013-02-12 22:08:00,
2013-02-12 17:09:00,46.2,43.5,29.63,WNW,293,0.0,0.0,90,0.00,,,0.10,WUHU216HW,2013-02-12 22:09:00,
2013-02-12 17:10:00,46.2,43.5,29.63,WNW,293,0.0,0.0,90,0.00,,,0.10,WUHU216HW,2013-02-12 22:10:00,
2013-02-12 17:11:00,46.5,43.8,29.63,WNW,293,0.0,0.0,90,0.00,,,0.10,WUHU216HW,2013-02-12 22:11:00,
2013-02-12 17:12:00,57.7,34.7,29.70,WNW,293,0.0,0.0,42,0.00,,,0.00,WUHU216HW,2013-02-12 22:12:00,
2013-02-12 17:13:00,46.5,43.8,29.64,WNW,293,0.0,0.0,90,0.00,,,0.10,WUHU216HW,2013-02-12 22:13:00,
2013-02-12 17:14:00,46.5,43.8,29.64,WNW,293,0.0,0.0,89,0.00,,,0.10,WUHU216HW,2013-02-12 22:14:00,
2013-02-12 17:15:00,46.5,43.8,29.64,WNW,293,0.0,0.0,89,0.00,,,0.10,WUHU216HW,2013-02-12 22:15:00,
2013-02-12 17:16:00,46.7,43.7,29.64,WNW,293,0.0,0.0,89,0.00,,,0.10,WUHU216HW,2013-02-12 22:16:00,
2013-02-12 17:17:00,46.7,43.7,29.64,WNW,293,0.0,0.0,89,0.00,,,0.10,WUHU216HW,2013-02-12 22:17:00,
2013-02-12 17:18:00,57.7,34.7,29.70,WNW,293,0.0,0.0,42,0.00,,,0.00,WUHU216HW,2013-02-12 22:18:00,
2013-02-12 17:19:00,46.9,43.9,29.64,WNW,293,0.0,0.0,89,0.00,,,0.10,WUHU216HW,2013-02-12 22:19:00,
2013-02-12 17:20:00,47.1,44.1,29.64,WNW,293,0.0,0.0,89,0.00,,,0.10,WUHU216HW,2013-02-12 22:20:00,
2013-02-12 17:21:00,47.1,44.1,29.64,WNW,293,0.0,0.0,89,0.00,,,0.10,WUHU216HW,2013-02-12 22:21:00,
2013-02-12 17:22:00,47.1,44.1,29.63,WSW,248,0.0,0.0,89,0.00,,,0.10,WUHU216HW,2013-02-12 22:22:00,
2013-02-12 17:23:00,57.3,34.9,29.70,WNW,293,0.0,0.0,43,0.00,,,0.00,WUHU216HW,2013-02-12 22:23:00,
2013-02-12 17:24:00,47.1,44.1,29.63,WSW,248,0.0,0.0,89,0.00,,,0.10,WUHU216HW,2013-02-12 22:24:00,
2013-02-12 17:26:00,47.3,44.2,29.64,WSW,248,0.0,0.0,89,0.00,,,0.10,WUHU216HW,2013-02-12 22:26:00,
2013-02-12 17:27:00,47.4,44.4,29.64,WSW,248,1.3,1.3,89,0.00,,,0.10,WUHU216HW,2013-02-12 22:27:00,
2013-02-12 17:28:00,57.0,34.6,29.70,WNW,293,0.0,0.0,43,0.00,,,0.00,WUHU216HW,2013-02-12 22:28:00,
2013-02-12 17:29:00,47.6,44.6,29.64,WSW,248,0.0,1.3,89,0.00,,,0.10,WUHU216HW,2013-02-12 22:29:00,
2013-02-12 17:30:00,47.6,44.6,29.64,WSW,248,0.0,1.3,89,0.00,,,0.10,WUHU216HW,2013-02-12 22:30:00,
2013-02-12 17:31:00,47.8,44.8,29.64,WSW,248,0.0,1.3,89,0.00,,,0.10,WUHU216HW,2013-02-12 22:31:00,
2013-02-12 17:32:00,47.8,44.8,29.64,WSW,248,0.0,1.3,89,0.00,,,0.10,WUHU216HW,2013-02-12 22:32:00,
2013-02-12 17:33:00,57.0,34.6,29.69,WNW,293,0.0,0.0,43,0.00,,,0.00,WUHU216HW,2013-02-12 22:33:00,
2013-02-12 17:34:00,48.0,44.6,29.63,WSW,248,0.0,1.3,88,0.00,,,0.10,WUHU216HW,2013-02-12 22:34:00,
2013-02-12 17:35:00,48.0,44.6,29.64,West,270,3.1,3.1,88,0.00,,,0.10,WUHU216HW,2013-02-12 22:35:00,
2013-02-12 17:36:00,48.0,44.6,29.63,West,270,3.1,3.1,88,0.00,,,0.10,WUHU216HW,2013-02-12 22:36:00,
2013-02-12 17:37:00,48.3,45.0,29.63,West,270,0.0,3.1,88,0.00,,,0.10,WUHU216HW,2013-02-12 22:37:00,
2013-02-12 17:38:00,56.6,34.8,29.70,WNW,293,0.0,0.0,44,0.00,,,0.00,WUHU216HW,2013-02-12 22:38:00,
2013-02-12 17:39:00,48.3,45.0,29.64,West,270,0.0,3.1,88,0.00,,,0.10,WUHU216HW,2013-02-12 22:39:00,
2013-02-12 17:40:00,48.3,45.0,29.63,WNW,293,0.0,3.1,88,0.00,,,0.10,WUHU216HW,2013-02-12 22:40:00,
2013-02-12 17:41:00,48.3,45.0,29.64,WNW,293,0.0,3.1,88,0.00,,,0.10,WUHU216HW,2013-02-12 22:41:00,
2013-02-12 17:42:00,48.7,45.0,29.64,West,270,0.0,3.1,87,0.00,,,0.10,WUHU216HW,2013-02-12 22:42:00,
2013-02-12 17:43:00,56.4,35.2,29.70,WNW,293,0.0,0.0,45,0.00,,,0.00,WUHU216HW,2013-02-12 22:43:00,
2013-02-12 17:44:00,48.7,45.0,29.63,West,270,0.0,3.1,87,0.00,,,0.10,WUHU216HW,2013-02-12 22:44:00,
2013-02-12 17:45:00,48.7,45.0,29.63,West,270,0.0,3.1,87,0.00,,,0.10,WUHU216HW,2013-02-12 22:45:00,
2013-02-12 17:46:00,48.9,45.1,29.63,West,270,0.0,3.1,87,0.00,,,0.10,WUHU216HW,2013-02-12 22:46:00,
2013-02-12 17:47:00,48.9,45.1,29.63,West,270,0.0,3.1,87,0.00,,,0.10,WUHU216HW,2013-02-12 22:47:00,
2013-02-12 17:48:00,56.1,35.5,29.70,WNW,293,0.0,0.0,46,0.00,,,0.00,WUHU216HW,2013-02-12 22:48:00,
2013-02-12 17:49:00,48.9,45.1,29.63,West,270,0.0,0.0,87,0.00,,,0.10,WUHU216HW,2013-02-12 22:49:00,
2013-02-12 17:50:00,48.9,45.1,29.63,West,270,0.0,0.0,87,0.00,,,0.10,WUHU216HW,2013-02-12 22:50:00,
2013-02-12 17:51:00,49.1,45.3,29.63,West,270,1.7,1.7,87,0.00,,,0.10,WUHU216HW,2013-02-12 22:51:00,
2013-02-12 17:52:00,49.1,45.3,29.63,West,270,1.7,1.7,87,0.00,,,0.10,WUHU216HW,2013-02-12 22:52:00,
2013-02-12 17:53:00,56.1,35.5,29.69,WNW,293,0.0,0.0,46,0.00,,,0.00,WUHU216HW,2013-02-12 22:53:00,
2013-02-12 17:54:00,49.1,45.3,29.63,West,270,0.0,1.7,86,0.00,,,0.10,WUHU216HW,2013-02-12 22:54:00,
2013-02-12 17:55:00,49.2,45.2,29.63,West,270,0.0,1.7,86,0.00,,,0.10,WUHU216HW,2013-02-12 22:55:00,
2013-02-12 17:56:00,49.2,45.2,29.63,West,270,0.0,1.7,86,0.00,,,0.10,WUHU216HW,2013-02-12 22:56:00,
2013-02-12 17:57:00,49.6,45.5,29.63,West,270,0.0,1.7,86,0.00,,,0.10,WUHU216HW,2013-02-12 22:57:00,
2013-02-12 17:58:00,55.9,35.3,29.68,WNW,293,0.0,0.0,46,0.00,,,0.00,WUHU216HW,2013-02-12 22:58:00,
2013-02-12 17:59:00,49.8,45.7,29.63,West,270,0.0,1.7,86,0.00,,,0.10,WUHU216HW,2013-02-12 22:59:00,
2013-02-12 18:00:00,49.8,45.7,29.63,West,270,0.0,1.7,86,0.00,,,0.10,WUHU216HW,2013-02-12 23:00:00,
2013-02-12 18:01:00,50.1,45.7,29.63,WNW,293,0.0,1.7,85,0.00,,,0.10,WUHU216HW,2013-02-12 23:01:00,
2013-02-12 18:02:00,50.1,45.7,29.64,WNW,293,0.0,0.0,85,0.00,,,0.10,WUHU216HW,2013-02-12 23:02:00,
2013-02-12 18:03:00,55.5,34.9,29.68,WNW,293,0.0,0.0,46,0.00,,,0.00,WUHU216HW,2013-02-12 23:03:00,
2013-02-12 18:04:00,50.3,45.9,29.63,WNW,293,0.0,0.0,85,0.00,,,0.10,WUHU216HW,2013-02-12 23:04:00,
2013-02-12 18:05:00,50.5,46.1,29.63,WNW,293,0.0,0.0,85,0.00,,,0.10,WUHU216HW,2013-02-12 23:05:00,
2013-02-12 18:09:00,55.5,34.9,29.68,WNW,293,0.0,0.0,46,0.00,,,0.00,WUHU216HW,2013-02-12 23:09:00,
2013-02-12 18:14:00,55.2,34.6,29.69,WNW,293,0.0,0.0,46,0.00,,,0.00,WUHU216HW,2013-02-12 23:14:00,
2013-02-12 18:15:00,51.4,46.1,29.63,West,270,0.0,0.0,81,0.00,,,0.10,WUHU216HW,2013-02-12 23:15:00,
2013-02-12 18:16:00,51.6,46.2,29.63,West,270,0.0,0.0,82,0.00,,,0.10,WUHU216HW,2013-02-12 23:16:00,
2013-02-12 18:17:00,51.6,46.2,29.63,West,270,0.0,0.0,82,0.00,,,0.10,WUHU216HW,2013-02-12 23:17:00,
2013-02-12 18:18:00,52.1,46.5,29.63,West,270,0.0,0.0,81,0.00,,,0.10,WUHU216HW,2013-02-12 23:18:00,
2013-02-12 18:19:00,55.0,34.4,29.69,WNW,293,0.0,0.0,46,0.00,,,0.00,WUHU216HW,2013-02-12 23:19:00,
2013-02-12 18:20:00,52.1,46.5,29.63,West,270,0.0,0.0,81,0.00,,,0.10,WUHU216HW,2013-02-12 23:20:00,
2013-02-12 18:21:00,52.5,46.5,29.64,West,270,0.0,0.0,80,0.00,,,0.10,WUHU216HW,2013-02-12 23:21:00,
2013-02-12 18:22:00,52.5,46.5,29.64,West,270,0.0,0.0,80,0.00,,,0.10,WUHU216HW,2013-02-12 23:22:00,
2013-02-12 18:23:00,53.0,47.7,29.64,West,270,0.0,0.0,82,0.00,,,0.10,WUHU216HW,2013-02-12 23:23:00,
2013-02-12 18:24:00,54.8,35.4,29.69,WNW,293,0.0,0.0,48,0.00,,,0.00,WUHU216HW,2013-02-12 23:24:00,
2013-02-12 18:25:00,53.2,46.5,29.64,West,270,0.0,0.0,78,0.00,,,0.10,WUHU216HW,2013-02-12 23:25:00,
2013-02-12 18:26:00,53.2,46.5,29.64,West,270,0.0,0.0,78,0.00,,,0.10,WUHU216HW,2013-02-12 23:26:00,
2013-02-12 18:27:00,53.4,46.7,29.64,WNW,293,0.0,0.0,78,0.00,,,0.10,WUHU216HW,2013-02-12 23:27:00,
2013-02-12 18:28:00,53.4,46.7,29.64,WNW,293,0.0,0.0,78,0.00,,,0.10,WUHU216HW,2013-02-12 23:28:00,
2013-02-12 18:29:00,54.6,34.7,29.69,WNW,293,0.0,0.0,48,0.00,,,0.00,WUHU216HW,2013-02-12 23:29:00,
2013-02-12 18:30:00,53.7,47.1,29.64,WNW,293,0.0,0.0,78,0.00,,,0.10,WUHU216HW,2013-02-12 23:30:00,
2013-02-12 18:32:00,53.9,46.9,29.64,West,270,0.0,0.0,77,0.00,,,0.10,WUHU216HW,2013-02-12 23:32:00,
2013-02-12 18:33:00,54.3,46.5,29.64,WSW,248,0.0,0.0,75,0.00,,,0.10,WUHU216HW,2013-02-12 23:33:00,
2013-02-12 18:34:00,54.3,34.9,29.69,WNW,293,0.0,0.0,48,0.00,,,0.00,WUHU216HW,2013-02-12 23:34:00,
2013-02-12 18:35:00,54.3,46.5,29.64,WSW,248,0.0,0.0,75,0.00,,,0.10,WUHU216HW,2013-02-12 23:35:00,
2013-02-12 18:36:00,54.5,46.3,29.64,West,270,0.0,0.0,74,0.00,,,0.10,WUHU216HW,2013-02-12 23:36:00,
2013-02-12 18:37:00,54.5,46.3,29.64,West,270,0.0,0.0,74,0.00,,,0.10,WUHU216HW,2013-02-12 23:37:00,
2013-02-12 18:38:00,55.0,47.2,29.64,West,270,0.0,0.0,75,0.00,,,0.10,WUHU216HW,2013-02-12 23:38:00,
2013-02-12 18:39:00,54.1,35.9,29.69,WNW,293,0.0,0.0,50,0.00,,,0.00,WUHU216HW,2013-02-12 23:39:00,
2013-02-12 18:41:00,55.2,47.7,29.63,West,270,0.0,0.0,76,0.00,,,0.10,WUHU216HW,2013-02-12 23:41:00,
2013-02-12 18:42:00,55.2,47.7,29.63,West,270,0.0,0.0,75,0.00,,,0.10,WUHU216HW,2013-02-12 23:42:00,
2013-02-12 18:44:00,53.9,35.7,29.68,WNW,293,0.0,0.0,50,0.00,,,0.00,WUHU216HW,2013-02-12 23:44:00,
2013-02-12 18:45:00,55.4,46.8,29.63,WSW,248,0.0,0.0,73,0.00,,,0.10,WUHU216HW,2013-02-12 23:45:00,
2013-02-12 18:46:00,55.4,46.8,29.64,West,270,0.0,0.0,74,0.00,,,0.10,WUHU216HW,2013-02-12 23:46:00,
2013-02-12 18:47:00,55.4,46.8,29.63,West,270,0.0,0.0,74,0.00,,,0.10,WUHU216HW,2013-02-12 23:47:00,
2013-02-12 18:48:00,55.5,47.3,29.63,West,270,0.0,0.0,74,0.00,,,0.10,WUHU216HW,2013-02-12 23:48:00,
2013-02-12 18:49:00,55.5,47.3,29.64,West,270,0.0,0.0,74,0.00,,,0.10,WUHU216HW,2013-02-12 23:49:00,
2013-02-12 18:50:00,53.9,35.7,29.68,WNW,293,0.0,0.0,52,0.00,,,0.00,WUHU216HW,2013-02-12 23:50:00,
2013-02-12 18:51:00,55.9,47.7,29.64,West,270,0.0,0.0,74,0.00,,,0.10,WUHU216HW,2013-02-12 23:51:00,
2013-02-12 18:52:00,55.9,47.7,29.64,West,270,0.0,0.0,74,0.00,,,0.10,WUHU216HW,2013-02-12 23:52:00,
2013-02-12 18:53:00,56.1,47.9,29.64,West,270,0.0,0.0,74,0.00,,,0.10,WUHU216HW,2013-02-12 23:53:00,
2013-02-12 18:54:00,56.1,47.9,29.64,West,270,0.0,0.0,74,0.00,,,0.10,WUHU216HW,2013-02-12 23:54:00,
2013-02-12 18:55:00,53.7,35.5,29.69,WNW,293,0.0,0.0,50,0.00,,,0.00,WUHU216HW,2013-02-12 23:55:00,
2013-02-12 18:56:00,56.1,47.9,29.64,West,270,0.0,0.0,72,0.00,,,0.10,WUHU216HW,2013-02-12 23:56:00,
2013-02-12 18:57:00,56.1,47.9,29.64,West,270,0.0,0.0,70,0.00,,,0.10,WUHU216HW,2013-02-12 23:57:00,
2013-02-12 18:58:00,56.1,47.9,29.64,West,270,0.0,0.0,70,0.00,,,0.10,WUHU216HW,2013-02-12 23:58:00,
2013-02-12 19:00:00,53.6,35.4,29.69,WNW,293,0.0,0.0,51,0.00,,,0.00,WUHU216HW,2013-02-13 00:00:00,
2013-02-12 19:01:00,56.1,47.9,29.64,West,270,0.0,0.0,70,0.00,,,0.10,WUHU216HW,2013-02-13 00:01:00,
2013-02-12 19:02:00,56.1,47.9,29.64,West,270,0.0,0.0,70,0.00,,,0.10,WUHU216HW,2013-02-13 00:02:00,
2013-02-12 19:03:00,56.1,47.9,29.64,WSW,248,0.0,0.0,68,0.00,,,0.10,WUHU216HW,2013-02-13 00:03:00,
2013-02-12 19:04:00,56.1,47.9,29.64,WSW,248,0.0,0.0,68,0.00,,,0.10,WUHU216HW,2013-02-13 00:04:00,
2013-02-12 19:05:00,53.2,36.4,29.69,WNW,293,0.0,0.0,53,0.00,,,0.00,WUHU216HW,2013-02-13 00:05:00,
2013-02-12 19:06:00,56.3,45.8,29.64,WSW,248,0.0,0.0,68,0.00,,,0.10,WUHU216HW,2013-02-13 00:06:00,
2013-02-12 19:07:00,56.3,45.8,29.64,WSW,248,0.0,0.0,68,0.00,,,0.10,WUHU216HW,2013-02-13 00:07:00,
2013-02-12 19:08:00,56.3,45.8,29.63,WNW,293,0.0,0.0,67,0.00,,,0.10,WUHU216HW,2013-02-13 00:08:00,
2013-02-12 19:09:00,56.3,45.8,29.63,WNW,293,0.0,0.0,67,0.00,,,0.10,WUHU216HW,2013-02-13 00:09:00,
2013-02-12 19:10:00,53.2,36.4,29.69,WNW,293,0.0,0.0,53,0.00,,,0.00,WUHU216HW,2013-02-13 00:10:00,
2013-02-12 19:11:00,56.4,45.2,29.64,WNW,293,0.0,0.0,66,0.00,,,0.10,WUHU216HW,2013-02-13 00:11:00,
2013-02-12 19:12:00,56.4,45.2,29.64,WNW,293,0.0,0.0,66,0.00,,,0.10,WUHU216HW,2013-02-13 00:12:00,
2013-02-12 19:13:00,56.4,45.2,29.64,WNW,293,0.0,0.0,66,0.00,,,0.10,WUHU216HW,2013-02-13 00:13:00,
2013-02-12 19:14:00,56.4,45.2,29.64,WNW,293,0.0,0.0,66,0.00,,,0.10,WUHU216HW,2013-02-13 00:14:00,
2013-02-12 19:15:00,53.0,35.8,29.68,WNW,293,0.0,0.0,52,0.00,,,0.00,WUHU216HW,2013-02-13 00:15:00,
2013-02-12 19:16:00,56.8,45.9,29.64,NNW,338,0.0,0.0,67,0.00,,,0.10,WUHU216HW,2013-02-13 00:16:00,
2013-02-12 19:17:00,56.8,45.9,29.64,NNW,338,0.0,0.0,67,0.00,,,0.10,WUHU216HW,2013-02-13 00:17:00,
2013-02-12 19:18:00,57.0,45.3,29.64,NNW,338,0.0,0.0,65,0.00,,,0.10,WUHU216HW,2013-02-13 00:18:00,
2013-02-12 19:19:00,57.0,45.3,29.64,NNW,338,0.0,0.0,65,0.00,,,0.10,WUHU216HW,2013-02-13 00:19:00,
2013-02-12 19:20:00,53.0,35.8,29.68,WNW,293,0.0,0.0,53,0.00,,,0.00,WUHU216HW,2013-02-13 00:20:00,
2013-02-12 19:21:00,57.3,45.2,29.64,West,270,0.0,0.0,64,0.00,,,0.10,WUHU216HW,2013-02-13 00:21:00,
2013-02-12 19:22:00,57.3,45.2,29.64,West,270,0.0,0.0,64,0.00,,,0.10,WUHU216HW,2013-02-13 00:22:00,
2013-02-12 19:23:00,57.7,46.0,29.64,WNW,293,0.0,0.0,65,0.00,,,0.10,WUHU216HW,2013-02-13 00:23:00,
2013-02-12 19:24:00,57.7,46.0,29.64,WNW,293,0.0,0.0,65,0.00,,,0.10,WUHU216HW,2013-02-13 00:24:00,
2013-02-12 19:25:00,57.9,46.1,29.64,WNW,293,0.0,0.0,65,0.00,,,0.10,WUHU216HW,2013-02-13 00:25:00,
2013-02-12 19:26:00,52.8,35.2,29.68,WNW,293,0.0,0.0,51,0.00,,,0.00,WUHU216HW,2013-02-13 00:26:00,
2013-02-12 19:27:00,58.2,46.1,29.64,ENE,68,0.0,0.0,64,0.00,,,0.10,WUHU216HW,2013-02-13 00:27:00,
2013-02-12 19:28:00,58.2,46.1,29.64,ENE,68,0.0,0.0,64,0.00,,,0.10,WUHU216HW,2013-02-13 00:28:00,
2013-02-12 19:29:00,58.6,46.4,29.64,East,90,0.0,0.0,64,0.00,,,0.10,WUHU216HW,2013-02-13 00:29:00,
2013-02-12 19:30:00,58.6,46.4,29.64,East,90,0.0,0.0,64,0.00,,,0.10,WUHU216HW,2013-02-13 00:30:00,
2013-02-12 19:31:00,52.8,35.2,29.67,WNW,293,0.0,0.0,52,0.00,,,0.00,WUHU216HW,2013-02-13 00:31:00,
2013-02-12 19:32:00,58.8,46.2,29.64,ENE,68,0.0,0.0,63,0.00,,,0.10,WUHU216HW,2013-02-13 00:32:00,
2013-02-12 19:33:00,58.8,46.2,29.64,ENE,68,0.0,0.0,63,0.00,,,0.10,WUHU216HW,2013-02-13 00:33:00,
2013-02-12 19:34:00,59.0,46.3,29.64,ENE,68,0.0,0.0,63,0.00,,,0.10,WUHU216HW,2013-02-13 00:34:00,
2013-02-12 19:35:00,59.0,46.3,29.64,ENE,68,0.0,0.0,63,0.00,,,0.10,WUHU216HW,2013-02-13 00:35:00,
2013-02-12 19:36:00,52.8,35.2,29.67,WNW,293,0.0,0.0,53,0.00,,,0.00,WUHU216HW,2013-02-13 00:36:00,
2013-02-12 19:37:00,59.5,45.2,29.64,West,270,0.0,0.0,59,0.00,,,0.10,WUHU216HW,2013-02-13 00:37:00,
2013-02-12 19:38:00,59.7,43.9,29.64,SW,225,0.0,0.0,56,0.00,,,0.10,WUHU216HW,2013-02-13 00:38:00,
2013-02-12 19:39:00,59.7,43.9,29.64,SW,225,0.0,0.0,56,0.00,,,0.10,WUHU216HW,2013-02-13 00:39:00,
2013-02-12 19:41:00,52.7,36.4,29.68,WNW,293,0.0,0.0,54,0.00,,,0.00,WUHU216HW,2013-02-13 00:41:00,
2013-02-12 19:45:00,60.0,45.2,29.64,West,270,0.0,0.0,55,0.00,,,0.10,WUHU216HW,2013-02-13 00:45:00,
2013-02-12 19:46:00,60.0,45.2,29.64,West,270,0.0,0.0,55,0.00,,,0.10,WUHU216HW,2013-02-13 00:46:00,
2013-02-12 19:47:00,52.5,36.2,29.67,WNW,293,0.0,0.0,55,0.00,,,0.00,WUHU216HW,2013-02-13 00:47:00,
2013-02-12 19:48:00,60.4,45.1,29.64,South,180,0.0,0.0,57,0.00,,,0.10,WUHU216HW,2013-02-13 00:48:00,
2013-02-12 19:49:00,60.4,45.1,29.64,SW,225,0.0,0.0,57,0.00,,,0.10,WUHU216HW,2013-02-13 00:49:00,
2013-02-12 19:50:00,60.4,45.1,29.64,SW,225,0.0,0.0,57,0.00,,,0.10,WUHU216HW,2013-02-13 00:50:00,
2013-02-12 19:51:00,60.9,46.1,29.64,West,270,0.0,0.0,58,0.00,,,0.10,WUHU216HW,2013-02-13 00:51:00,
2013-02-12 19:52:00,52.3,36.1,29.66,WNW,293,0.0,0.0,56,0.00,,,0.00,WUHU216HW,2013-02-13 00:52:00,
2013-02-12 19:53:00,61.5,46.1,29.64,West,270,0.0,0.0,57,0.00,,,0.10,WUHU216HW,2013-02-13 00:53:00,
2013-02-12 19:54:00,61.5,46.1,29.64,West,270,0.0,0.0,57,0.00,,,0.10,WUHU216HW,2013-02-13 00:54:00,
2013-02-12 19:55:00,61.5,46.1,29.64,West,270,0.0,0.0,56,0.00,,,0.10,WUHU216HW,2013-02-13 00:55:00,
2013-02-12 19:56:00,61.5,46.1,29.63,West,270,0.0,0.0,56,0.00,,,0.10,WUHU216HW,2013-02-13 00:56:00,
2013-02-12 19:57:00,51.9,36.6,29.65,WNW,293,0.0,0.0,56,0.00,,,0.00,WUHU216HW,2013-02-13 00:57:00,
2013-02-12 19:58:00,61.5,46.1,29.63,WNW,293,0.0,0.0,57,0.00,,,0.10,WUHU216HW,2013-02-13 00:58:00,
2013-02-12 19:59:00,61.5,46.1,29.63,WNW,293,0.0,0.0,57,0.00,,,0.10,WUHU216HW,2013-02-13 00:59:00,
2013-02-12 20:00:00,62.0,47.1,29.63,WNW,293,0.0,0.0,58,0.00,,,0.10,WUHU216HW,2013-02-13 01:00:00,
2013-02-12 20:01:00,62.0,47.1,29.63,WNW,293,0.0,0.0,58,0.00,,,0.10,WUHU216HW,2013-02-13 01:01:00,
2013-02-12 20:02:00,51.9,36.6,29.64,WNW,293,0.0,0.0,56,0.00,,,0.00,WUHU216HW,2013-02-13 01:02:00,
2013-02-12 20:03:00,62.2,46.2,29.63,WNW,293,0.0,0.0,56,0.00,,,0.10,WUHU216HW,2013-02-13 01:03:00,
2013-02-12 20:04:00,62.0,44.6,29.63,West,270,0.0,0.0,53,0.00,,,0.10,WUHU216HW,2013-02-13 01:04:00,
2013-02-12 20:05:00,62.0,44.6,29.63,West,270,0.0,0.0,53,0.00,,,0.10,WUHU216HW,2013-02-13 01:05:00,
2013-02-12 20:06:00,61.8,45.9,29.64,West,270,0.0,0.0,56,0.00,,,0.10,WUHU216HW,2013-02-13 01:06:00,
2013-02-12 20:07:00,51.9,36.6,29.63,WNW,293,0.0,0.0,58,0.00,,,0.00,WUHU216HW,2013-02-13 01:07:00,
2013-02-12 20:08:00,61.8,45.9,29.64,West,270,0.0,0.0,56,0.00,,,0.10,WUHU216HW,2013-02-13 01:08:00,
2013-02-12 20:09:00,62.2,45.8,29.64,West,270,0.0,0.0,55,0.00,,,0.10,WUHU216HW,2013-02-13 01:09:00,
2013-02-12 20:10:00,62.2,45.8,29.64,West,270,0.0,0.0,55,0.00,,,0.10,WUHU216HW,2013-02-13 01:10:00,
2013-02-12 20:11:00,62.4,45.4,29.63,West,270,0.0,0.0,54,0.00,,,0.10,WUHU216HW,2013-02-13 01:11:00,
2013-02-12 20:12:00,62.4,45.4,29.63,West,270,0.0,0.0,54,0.00,,,0.10,WUHU216HW,2013-02-13 01:12:00,
2013-02-12 20:13:00,51.6,36.7,29.62,WNW,293,0.0,0.0,57,0.00,,,0.00,WUHU216HW,2013-02-13 01:13:00,
2013-02-12 20:14:00,62.7,46.7,29.63,WSW,248,4.4,4.4,56,0.00,,,0.10,WUHU216HW,2013-02-13 01:14:00,
2013-02-12 20:18:00,51.8,36.9,29.62,WNW,293,0.0,0.0,57,0.00,,,0.00,WUHU216HW,2013-02-13 01:18:00,
2013-02-12 20:23:00,51.9,37.5,29.61,WNW,293,0.0,0.0,58,0.00,,,0.00,WUHU216HW,2013-02-13 01:23:00,
2013-02-12 20:24:00,61.5,43.7,29.63,SSE,158,0.0,6.0,52,0.00,,,0.10,WUHU216HW,2013-02-13 01:24:00,
2013-02-12 20:26:00,61.5,43.7,29.63,NW,315,0.0,6.0,54,0.00,,,0.10,WUHU216HW,2013-02-13 01:26:00,
2013-02-12 20:27:00,61.5,43.7,29.63,NW,315,0.0,6.0,54,0.00,,,0.10,WUHU216HW,2013-02-13 01:27:00,
2013-02-12 20:28:00,51.6,36.7,29.61,WNW,293,0.0,0.0,57,0.00,,,0.00,WUHU216HW,2013-02-13 01:28:00,
2013-02-12 20:29:00,61.7,44.8,29.63,West,270,0.0,6.0,54,0.00,,,0.10,WUHU216HW,2013-02-13 01:29:00,
2013-02-12 20:30:00,61.7,44.8,29.63,West,270,0.0,0.6,54,0.00,,,0.10,WUHU216HW,2013-02-13 01:30:00,
2013-02-12 20:31:00,61.8,44.5,29.63,WNW,293,0.0,0.6,53,0.00,,,0.10,WUHU216HW,2013-02-13 01:31:00,
2013-02-12 20:32:00,61.8,44.5,29.63,WNW,293,0.0,0.0,53,0.00,,,0.10,WUHU216HW,2013-02-13 01:32:00,
2013-02-12 20:33:00,51.6,36.7,29.63,WNW,293,0.0,0.0,57,0.00,,,0.00,WUHU216HW,2013-02-13 01:33:00,
2013-02-12 20:34:00,62.2,46.2,29.63,WNW,293,0.0,0.0,56,0.00,,,0.10,WUHU216HW,2013-02-13 01:34:00,
2013-02-12 20:35:00,62.4,44.9,29.63,WNW,293,0.0,0.0,53,0.00,,,0.10,WUHU216HW,2013-02-13 01:35:00,
2013-02-12 20:36:00,62.4,44.9,29.63,WNW,293,0.0,0.0,53,0.00,,,0.10,WUHU216HW,2013-02-13 01:36:00,
2013-02-12 20:37:00,62.7,45.3,29.63,West,270,1.7,1.7,53,0.00,,,0.10,WUHU216HW,2013-02-13 01:37:00,
2013-02-12 20:38:00,51.6,36.7,29.64,WNW,293,0.0,0.0,57,0.00,,,0.00,WUHU216HW,2013-02-13 01:38:00,
2013-02-12 20:39:00,62.7,45.3,29.63,West,270,1.7,1.7,53,0.00,,,0.10,WUHU216HW,2013-02-13 01:39:00,
2013-02-12 20:40:00,63.1,45.6,29.63,SW,225,0.0,1.7,53,0.00,,,0.10,WUHU216HW,2013-02-13 01:40:00,
2013-02-12 20:41:00,63.1,45.6,29.63,SW,225,0.0,1.7,53,0.00,,,0.10,WUHU216HW,2013-02-13 01:41:00,
2013-02-12 20:42:00,62.9,44.5,29.63,East,90,0.0,1.7,51,0.00,,,0.10,WUHU216HW,2013-02-13 01:42:00,
2013-02-12 20:43:00,51.4,37.0,29.65,WNW,293,0.0,0.0,58,0.00,,,0.00,WUHU216HW,2013-02-13 01:43:00,
2013-02-12 20:44:00,62.7,44.3,29.63,WNW,293,0.0,1.7,51,0.00,,,0.10,WUHU216HW,2013-02-13 01:44:00,
2013-02-12 20:45:00,62.7,44.3,29.63,WNW,293,0.0,1.7,51,0.00,,,0.10,WUHU216HW,2013-02-13 01:45:00,
2013-02-12 20:46:00,62.4,44.9,29.63,WNW,293,0.0,1.7,53,0.00,,,0.10,WUHU216HW,2013-02-13 01:46:00,
2013-02-12 20:47:00,62.4,44.9,29.63,WNW,293,0.0,1.7,53,0.00,,,0.10,WUHU216HW,2013-02-13 01:47:00,
2013-02-12 20:48:00,51.4,37.0,29.66,WNW,293,0.0,0.0,60,0.00,,,0.00,WUHU216HW,2013-02-13 01:48:00,
2013-02-12 20:49:00,62.7,44.8,29.63,WNW,293,0.0,0.0,52,0.00,,,0.10,WUHU216HW,2013-02-13 01:49:00,
2013-02-12 20:50:00,62.9,44.0,29.63,West,270,5.8,5.8,50,0.00,,,0.10,WUHU216HW,2013-02-13 01:50:00,
2013-02-12 20:51:00,62.7,43.8,29.63,WNW,293,4.4,5.8,50,0.00,,,0.10,WUHU216HW,2013-02-13 01:51:00,
2013-02-12 20:52:00,62.4,44.0,29.62,WNW,293,2.2,6.4,51,0.00,,,0.10,WUHU216HW,2013-02-13 01:52:00,
2013-02-12 20:53:00,51.4,37.0,29.67,WNW,293,0.0,0.0,60,0.00,,,0.00,WUHU216HW,2013-02-13 01:53:00,
2013-02-12 20:54:00,62.7,45.3,29.62,WNW,293,0.0,6.4,53,0.00,,,0.10,WUHU216HW,2013-02-13 01:54:00,
2013-02-12 20:55:00,62.7,45.3,29.62,WNW,293,0.0,6.4,53,0.00,,,0.10,WUHU216HW,2013-02-13 01:55:00,
2013-02-12 20:56:00,63.3,44.8,29.62,NW,315,0.0,6.4,51,0.00,,,0.10,WUHU216HW,2013-02-13 01:56:00,
2013-02-12 20:57:00,63.3,44.8,29.62,NW,315,0.0,6.4,51,0.00,,,0.10,WUHU216HW,2013-02-13 01:57:00,
2013-02-12 20:58:00,51.2,38.2,29.68,WNW,293,0.0,0.0,61,0.00,,,0.00,WUHU216HW,2013-02-13 01:58:00,
2013-02-12 21:00:00,63.3,44.8,29.62,WNW,293,3.1,6.4,51,0.00,,,0.10,WUHU216HW,2013-02-13 02:00:00,
2013-02-12 21:01:00,63.5,44.9,29.62,NW,315,0.0,6.4,51,0.00,,,0.10,WUHU216HW,2013-02-13 02:01:00,
2013-02-12 21:02:00,63.5,44.9,29.62,NW,315,0.0,3.1,51,0.00,,,0.10,WUHU216HW,2013-02-13 02:02:00,
2013-02-12 21:03:00,51.0,38.4,29.69,WNW,293,0.0,0.0,62,0.00,,,0.00,WUHU216HW,2013-02-13 02:03:00,
2013-02-12 21:05:00,63.6,45.1,29.62,NNW,338,0.0,3.1,51,0.00,,,0.10,WUHU216HW,2013-02-13 02:05:00,
2013-02-12 21:06:00,63.6,45.1,29.62,NNW,338,0.0,3.1,51,0.00,,,0.10,WUHU216HW,2013-02-13 02:06:00,
2013-02-12 21:07:00,63.6,45.1,29.62,NNW,338,0.0,3.1,51,0.00,,,0.10,WUHU216HW,2013-02-13 02:07:00,
2013-02-12 21:08:00,51.0,38.4,29.69,WNW,293,0.0,0.0,61,0.00,,,0.00,WUHU216HW,2013-02-13 02:08:00,
2013-02-12 21:09:00,63.8,43.6,29.62,WNW,293,0.0,3.1,48,0.00,,,0.10,WUHU216HW,2013-02-13 02:09:00,
2013-02-12 21:10:00,63.8,43.6,29.62,WNW,293,0.0,3.1,52,0.00,,,0.10,WUHU216HW,2013-02-13 02:10:00,
2013-02-12 21:11:00,63.8,43.6,29.62,WNW,293,0.0,0.0,52,0.00,,,0.10,WUHU216HW,2013-02-13 02:11:00,
2013-02-12 21:12:00,64.0,44.4,29.62,SW,225,0.0,0.0,49,0.00,,,0.10,WUHU216HW,2013-02-13 02:12:00,
2013-02-12 21:13:00,51.0,38.4,29.69,WNW,293,0.0,0.0,59,0.00,,,0.00,WUHU216HW,2013-02-13 02:13:00,
2013-02-12 21:14:00,63.8,44.2,29.62,WNW,293,0.0,0.0,49,0.00,,,0.10,WUHU216HW,2013-02-13 02:14:00,
2013-02-12 21:15:00,63.8,44.2,29.62,WNW,293,0.0,0.0,49,0.00,,,0.10,WUHU216HW,2013-02-13 02:15:00,
2013-02-12 21:16:00,64.0,44.4,29.62,West,270,0.0,0.0,49,0.00,,,0.10,WUHU216HW,2013-02-13 02:16:00,
2013-02-12 21:17:00,64.0,44.4,29.62,West,270,0.0,0.0,49,0.00,,,0.10,WUHU216HW,2013-02-13 02:17:00,
2013-02-12 21:18:00,51.0,38.4,29.69,WNW,293,0.0,0.0,60,0.00,,,0.00,WUHU216HW,2013-02-13 02:18:00,
2013-02-12 21:19:00,64.0,44.4,29.62,West,270,0.0,0.0,49,0.00,,,0.10,WUHU216HW,2013-02-13 02:19:00,
2013-02-12 21:20:00,64.0,44.4,29.62,West,270,0.0,0.0,49,0.00,,,0.10,WUHU216HW,2013-02-13 02:20:00,
2013-02-12 21:21:00,63.6,44.0,29.61,NW,315,0.0,0.0,49,0.00,,,0.10,WUHU216HW,2013-02-13 02:21:00,
2013-02-12 21:22:00,64.0,45.9,29.61,West,270,4.9,4.9,52,0.00,,,0.10,WUHU216HW,2013-02-13 02:22:00,
2013-02-12 21:23:00,51.0,38.4,29.68,WNW,293,0.0,0.0,61,0.00,,,0.00,WUHU216HW,2013-02-13 02:23:00,
2013-02-12 21:24:00,64.0,45.9,29.61,West,270,4.9,4.9,52,0.00,,,0.10,WUHU216HW,2013-02-13 02:24:00,
2013-02-12 21:25:00,64.0,43.8,29.61,SW,225,0.0,4.9,48,0.00,,,0.10,WUHU216HW,2013-02-13 02:25:00,
2013-02-12 21:26:00,64.0,43.8,29.61,SW,225,0.0,4.9,48,0.00,,,0.10,WUHU216HW,2013-02-13 02:26:00,
2013-02-12 21:27:00,64.0,44.9,29.61,WNW,293,4.2,4.9,50,0.00,,,0.10,WUHU216HW,2013-02-13 02:27:00,
2013-02-12 21:28:00,64.0,44.9,29.61,WNW,293,4.2,4.9,50,0.00,,,0.10,WUHU216HW,2013-02-13 02:28:00,
2013-02-12 21:29:00,51.0,38.4,29.68,WNW,293,0.0,0.0,61,0.00,,,0.00,WUHU216HW,2013-02-13 02:29:00,
2013-02-12 21:30:00,64.0,44.4,29.61,WNW,293,0.0,4.9,49,0.00,,,0.10,WUHU216HW,2013-02-13 02:30:00,
2013-02-12 21:31:00,64.0,44.4,29.61,ENE,68,0.0,4.9,47,0.00,,,0.10,WUHU216HW,2013-02-13 02:31:00,
2013-02-12 21:32:00,64.0,44.4,29.61,ENE,68,0.0,4.9,47,0.00,,,0.10,WUHU216HW,2013-02-13 02:32:00,
2013-02-12 21:34:00,51.0,38.4,29.68,WNW,293,0.0,0.0,61,0.00,,,0.00,WUHU216HW,2013-02-13 02:34:00,
2013-02-12 21:35:00,64.5,44.3,29.61,East,90,0.0,4.2,48,0.00,,,0.10,WUHU216HW,2013-02-13 02:35:00,
2013-02-12 21:37:00,64.5,44.3,29.61,NW,315,0.0,4.2,47,0.00,,,0.10,WUHU216HW,2013-02-13 02:37:00,
2013-02-12 21:38:00,64.5,44.3,29.61,NW,315,0.0,4.2,47,0.00,,,0.10,WUHU216HW,2013-02-13 02:38:00,
2013-02-12 21:39:00,51.0,38.4,29.69,WNW,293,0.0,0.0,62,0.00,,,0.00,WUHU216HW,2013-02-13 02:39:00,
2013-02-12 21:42:00,64.5,42.6,29.61,West,270,5.5,5.5,45,0.00,,,0.10,WUHU216HW,2013-02-13 02:42:00,
2013-02-12 21:43:00,64.5,42.6,29.61,West,270,5.5,5.5,45,0.00,,,0.10,WUHU216HW,2013-02-13 02:43:00,
2013-02-12 21:45:00,51.0,38.4,29.69,WNW,293,0.0,0.0,63,0.00,,,0.00,WUHU216HW,2013-02-13 02:45:00,
2013-02-12 21:46:00,64.7,43.9,29.61,West,270,0.0,5.5,47,0.00,,,0.10,WUHU216HW,2013-02-13 02:46:00,
2013-02-12 21:47:00,64.7,43.9,29.61,West,270,0.0,5.5,47,0.00,,,0.10,WUHU216HW,2013-02-13 02:47:00,
2013-02-12 21:48:00,64.7,43.9,29.61,West,270,0.0,5.5,47,0.00,,,0.10,WUHU216HW,2013-02-13 02:48:00,
2013-02-12 21:49:00,64.5,42.6,29.61,SW,225,0.0,5.5,45,0.00,,,0.10,WUHU216HW,2013-02-13 02:49:00,
2013-02-12 21:50:00,51.0,38.4,29.70,WNW,293,0.0,0.0,63,0.00,,,0.00,WUHU216HW,2013-02-13 02:50:00,
2013-02-12 21:51:00,64.2,43.4,29.61,WNW,293,0.0,5.5,47,0.00,,,0.10,WUHU216HW,2013-02-13 02:51:00,
2013-02-12 21:52:00,64.0,43.8,29.61,WNW,293,0.0,5.5,48,0.00,,,0.10,WUHU216HW,2013-02-13 02:52:00,
2013-02-12 21:53:00,64.0,43.8,29.61,WNW,293,0.0,5.5,48,0.00,,,0.10,WUHU216HW,2013-02-13 02:53:00,
2013-02-12 21:54:00,64.0,43.8,29.61,WNW,293,0.0,0.0,48,0.00,,,0.10,WUHU216HW,2013-02-13 02:54:00,
2013-02-12 21:55:00,51.0,38.4,29.69,WNW,293,0.0,0.0,63,0.00,,,0.00,WUHU216HW,2013-02-13 02:55:00,
2013-02-12 21:56:00,63.6,42.3,29.61,NW,315,3.1,3.1,46,0.00,,,0.10,WUHU216HW,2013-02-13 02:56:00,
2013-02-12 21:57:00,63.6,42.3,29.60,NW,315,0.0,3.1,50,0.00,,,0.10,WUHU216HW,2013-02-13 02:57:00,
2013-02-12 21:58:00,63.6,42.3,29.60,NW,315,0.0,3.1,50,0.00,,,0.10,WUHU216HW,2013-02-13 02:58:00,
2013-02-12 21:59:00,64.0,43.2,29.61,WNW,293,0.0,3.1,47,0.00,,,0.10,WUHU216HW,2013-02-13 02:59:00,
2013-02-12 22:00:00,50.9,37.8,29.70,WNW,293,0.0,0.0,61,0.00,,,0.00,WUHU216HW,2013-02-13 03:00:00,
2013-02-12 22:01:00,64.0,43.2,29.61,WSW,248,0.0,3.1,47,0.00,,,0.10,WUHU216HW,2013-02-13 03:01:00,
2013-02-12 22:02:00,64.0,43.2,29.61,WSW,248,0.0,3.1,47,0.00,,,0.10,WUHU216HW,2013-02-13 03:02:00,
2013-02-12 22:03:00,64.0,43.2,29.61,WSW,248,0.0,3.1,47,0.00,,,0.10,WUHU216HW,2013-02-13 03:03:00,
2013-02-12 22:04:00,63.6,42.3,29.61,WSW,248,0.0,3.1,46,0.00,,,0.10,WUHU216HW,2013-02-13 03:04:00,
2013-02-12 22:05:00,50.9,37.8,29.70,WNW,293,0.0,0.0,61,0.00,,,0.00,WUHU216HW,2013-02-13 03:05:00,
2013-02-12 22:06:00,63.3,42.6,29.61,WNW,293,0.0,3.1,47,0.00,,,0.10,WUHU216HW,2013-02-13 03:06:00,
2013-02-12 22:10:00,50.7,37.7,29.70,WNW,293,0.0,0.0,61,0.00,,,0.00,WUHU216HW,2013-02-13 03:10:00,
2013-02-12 22:15:00,50.7,37.7,29.70,WNW,293,0.0,0.0,62,0.00,,,0.00,WUHU216HW,2013-02-13 03:15:00,
2013-02-12 22:16:00,63.3,41.4,29.59,West,270,9.3,9.3,45,0.00,,,0.10,WUHU216HW,2013-02-13 03:16:00,
2013-02-12 22:18:00,63.3,41.4,29.59,West,270,2.9,9.3,45,0.00,,,0.10,WUHU216HW,2013-02-13 03:18:00,
2013-02-12 22:19:00,63.3,41.4,29.60,West,270,2.9,9.3,45,0.00,,,0.10,WUHU216HW,2013-02-13 03:19:00,
2013-02-12 22:20:00,50.7,37.7,29.70,WNW,293,0.0,0.0,63,0.00,,,0.00,WUHU216HW,2013-02-13 03:20:00,
2013-02-12 22:21:00,63.1,41.3,29.60,WNW,293,0.0,9.3,45,0.00,,,0.10,WUHU216HW,2013-02-13 03:21:00,
2013-02-12 22:22:00,63.1,41.3,29.60,West,270,0.0,9.3,45,0.00,,,0.10,WUHU216HW,2013-02-13 03:22:00,
2013-02-12 22:23:00,63.1,41.3,29.60,West,270,0.0,9.3,45,0.00,,,0.10,WUHU216HW,2013-02-13 03:23:00,
2013-02-12 22:24:00,63.1,41.3,29.60,West,270,0.0,9.3,45,0.00,,,0.10,WUHU216HW,2013-02-13 03:24:00,
2013-02-12 22:25:00,50.5,38.3,29.69,WNW,293,0.0,0.0,64,0.00,,,0.00,WUHU216HW,2013-02-13 03:25:00,
2013-02-12 22:26:00,63.1,41.3,29.60,West,270,0.0,9.3,45,0.00,,,0.10,WUHU216HW,2013-02-13 03:26:00,
2013-02-12 22:27:00,63.1,41.3,29.59,NW,315,0.0,5.3,45,0.00,,,0.10,WUHU216HW,2013-02-13 03:27:00,
2013-02-12 22:28:00,63.1,41.3,29.59,NW,315,0.0,2.9,45,0.00,,,0.10,WUHU216HW,2013-02-13 03:28:00,
2013-02-12 22:30:00,50.5,38.3,29.70,WNW,293,0.0,0.0,64,0.00,,,0.00,WUHU216HW,2013-02-13 03:30:00,
2013-02-12 22:31:00,63.5,43.9,29.59,NW,315,0.0,0.0,49,0.00,,,0.10,WUHU216HW,2013-02-13 03:31:00,
2013-02-12 22:32:00,63.5,43.9,29.60,NW,315,0.0,0.0,49,0.00,,,0.10,WUHU216HW,2013-02-13 03:32:00,
2013-02-12 22:33:00,63.8,43.6,29.60,NW,315,0.0,0.0,48,0.00,,,0.10,WUHU216HW,2013-02-13 03:33:00,
2013-02-12 22:34:00,63.8,43.6,29.60,NW,315,0.0,0.0,48,0.00,,,0.10,WUHU216HW,2013-02-13 03:34:00,
2013-02-12 22:35:00,50.3,38.6,29.69,WNW,293,0.0,0.0,65,0.00,,,0.00,WUHU216HW,2013-02-13 03:35:00,
2013-02-12 22:36:00,64.0,41.5,29.59,WNW,293,0.0,0.0,44,0.00,,,0.10,WUHU216HW,2013-02-13 03:36:00,
2013-02-12 22:37:00,64.0,41.5,29.59,West,270,0.0,0.0,44,0.00,,,0.10,WUHU216HW,2013-02-13 03:37:00,
2013-02-12 22:38:00,64.0,41.5,29.59,West,270,0.0,0.0,44,0.00,,,0.10,WUHU216HW,2013-02-13 03:38:00,
2013-02-12 22:39:00,64.0,41.5,29.59,West,270,0.0,0.0,44,0.00,,,0.10,WUHU216HW,2013-02-13 03:39:00,
2013-02-12 22:40:00,50.1,38.4,29.70,WNW,293,0.0,0.0,63,0.00,,,0.00,WUHU216HW,2013-02-13 03:40:00,
2013-02-12 22:41:00,63.8,41.9,29.59,WNW,293,0.0,0.0,45,0.00,,,0.10,WUHU216HW,2013-02-13 03:41:00,
2013-02-12 22:42:00,64.0,42.1,29.59,WNW,293,0.0,0.0,45,0.00,,,0.10,WUHU216HW,2013-02-13 03:42:00,
2013-02-12 22:43:00,64.0,42.1,29.59,West,270,0.0,0.0,45,0.00,,,0.10,WUHU216HW,2013-02-13 03:43:00,
2013-02-12 22:44:00,64.0,42.1,29.59,West,270,0.0,0.0,45,0.00,,,0.10,WUHU216HW,2013-02-13 03:44:00,
2013-02-12 22:45:00,64.0,42.1,29.59,West,270,0.0,0.0,45,0.00,,,0.10,WUHU216HW,2013-02-13 03:45:00,
2013-02-12 22:46:00,50.3,39.0,29.69,WNW,293,0.0,0.0,65,0.00,,,0.00,WUHU216HW,2013-02-13 03:46:00,
2013-02-12 22:47:00,64.0,42.1,29.59,West,270,0.0,0.0,47,0.00,,,0.10,WUHU216HW,2013-02-13 03:47:00,
2013-02-12 22:48:00,64.4,42.4,29.59,WSW,248,0.0,0.0,45,0.00,,,0.10,WUHU216HW,2013-02-13 03:48:00,
2013-02-12 22:49:00,64.4,42.4,29.59,WSW,248,0.0,0.0,45,0.00,,,0.10,WUHU216HW,2013-02-13 03:49:00,
2013-02-12 22:50:00,64.5,42.0,29.59,WSW,248,0.0,0.0,44,0.00,,,0.10,WUHU216HW,2013-02-13 03:50:00,
2013-02-12 22:51:00,50.1,38.8,29.68,WNW,293,0.0,0.0,64,0.00,,,0.00,WUHU216HW,2013-02-13 03:51:00,
2013-02-12 22:52:00,64.9,44.6,29.59,WSW,248,0.0,0.0,48,0.00,,,0.10,WUHU216HW,2013-02-13 03:52:00,
2013-02-12 22:53:00,64.9,44.6,29.59,WSW,248,0.0,0.0,48,0.00,,,0.10,WUHU216HW,2013-02-13 03:53:00,
2013-02-12 22:54:00,64.9,44.6,29.60,West,270,0.0,0.0,45,0.00,,,0.10,WUHU216HW,2013-02-13 03:54:00,
2013-02-12 22:55:00,64.9,44.6,29.60,West,270,0.0,0.0,45,0.00,,,0.10,WUHU216HW,2013-02-13 03:55:00,
2013-02-12 22:56:00,50.1,38.8,29.66,WNW,293,0.0,0.0,65,0.00,,,0.00,WUHU216HW,2013-02-13 03:56:00,
2013-02-12 22:57:00,65.1,43.1,29.59,WSW,248,0.0,0.0,45,0.00,,,0.10,WUHU216HW,2013-02-13 03:57:00,
2013-02-12 22:58:00,65.1,43.1,29.59,WSW,248,0.0,0.0,45,0.00,,,0.10,WUHU216HW,2013-02-13 03:58:00,
2013-02-12 22:59:00,65.1,43.1,29.60,West,270,0.0,0.0,45,0.00,,,0.10,WUHU216HW,2013-02-13 03:59:00,
2013-02-12 23:00:00,65.1,43.1,29.60,West,270,0.0,0.0,45,0.00,,,0.10,WUHU216HW,2013-02-13 04:00:00,
2013-02-12 23:01:00,50.1,38.8,29.66,WNW,293,0.0,0.0,65,0.00,,,0.00,WUHU216HW,2013-02-13 04:01:00,
2013-02-12 23:02:00,65.1,43.1,29.60,ESE,113,0.0,0.0,45,0.00,,,0.10,WUHU216HW,2013-02-13 04:02:00,
2013-02-12 23:03:00,65.1,43.1,29.60,ESE,113,0.0,0.0,45,0.00,,,0.10,WUHU216HW,2013-02-13 04:03:00,
2013-02-12 23:04:00,65.1,43.1,29.60,ESE,113,0.0,0.0,45,0.00,,,0.10,WUHU216HW,2013-02-13 04:04:00,
2013-02-12 23:05:00,65.3,43.2,29.60,East,90,0.0,0.0,45,0.00,,,0.10,WUHU216HW,2013-02-13 04:05:00,
2013-02-12 23:06:00,50.1,38.8,29.67,WNW,293,0.0,0.0,65,0.00,,,0.00,WUHU216HW,2013-02-13 04:06:00,
2013-02-12 23:07:00,65.3,43.2,29.60,East,90,0.0,0.0,45,0.00,,,0.10,WUHU216HW,2013-02-13 04:07:00,
2013-02-12 23:08:00,65.4,42.8,29.60,West,270,0.0,0.0,44,0.00,,,0.10,WUHU216HW,2013-02-13 04:08:00,
2013-02-12 23:09:00,65.4,42.8,29.60,West,270,0.0,0.0,44,0.00,,,0.10,WUHU216HW,2013-02-13 04:09:00,
2013-02-12 23:10:00,65.4,42.8,29.59,NW,315,0.0,0.0,46,0.00,,,0.10,WUHU216HW,2013-02-13 04:10:00,
2013-02-12 23:11:00,50.1,38.8,29.67,WNW,293,0.0,0.0,65,0.00,,,0.00,WUHU216HW,2013-02-13 04:11:00,
2013-02-12 23:12:00,65.4,42.8,29.59,WNW,293,0.0,0.0,44,0.00,,,0.10,WUHU216HW,2013-02-13 04:12:00,
2013-02-12 23:13:00,65.4,42.8,29.59,WNW,293,0.0,0.0,44,0.00,,,0.10,WUHU216HW,2013-02-13 04:13:00,
2013-02-12 23:14:00,65.4,42.8,29.59,West,270,0.0,0.0,44,0.00,,,0.10,WUHU216HW,2013-02-13 04:14:00,
2013-02-12 23:15:00,65.4,42.8,29.59,West,270,0.0,0.0,44,0.00,,,0.10,WUHU216HW,2013-02-13 04:15:00,
2013-02-12 23:16:00,49.8,38.4,29.67,WNW,293,0.0,0.0,65,0.00,,,0.00,WUHU216HW,2013-02-13 04:16:00,
2013-02-12 23:17:00,65.8,42.6,29.59,West,270,0.0,0.0,43,0.00,,,0.10,WUHU216HW,2013-02-13 04:17:00,
2013-02-12 23:18:00,65.8,42.6,29.59,WNW,293,0.0,0.0,45,0.00,,,0.10,WUHU216HW,2013-02-13 04:18:00,
2013-02-12 23:19:00,65.8,42.6,29.59,WNW,293,0.0,0.0,45,0.00,,,0.10,WUHU216HW,2013-02-13 04:19:00,
2013-02-12 23:20:00,65.8,42.6,29.59,WNW,293,0.0,0.0,46,0.00,,,0.10,WUHU216HW,2013-02-13 04:20:00,
2013-02-12 23:21:00,49.8,38.4,29.66,WNW,293,0.0,0.0,65,0.00,,,0.00,WUHU216HW,2013-02-13 04:21:00,
2013-02-12 23:22:00,65.8,42.6,29.59,WNW,293,0.0,0.0,46,0.00,,,0.10,WUHU216HW,2013-02-13 04:22:00,
2013-02-12 23:23:00,66.0,43.3,29.59,WNW,293,0.0,0.0,44,0.00,,,0.10,WUHU216HW,2013-02-13 04:23:00,
2013-02-12 23:24:00,66.0,43.3,29.59,WNW,293,0.0,0.0,44,0.00,,,0.10,WUHU216HW,2013-02-13 04:24:00,
2013-02-12 23:25:00,65.8,43.2,29.59,West,270,0.0,0.0,44,0.00,,,0.10,WUHU216HW,2013-02-13 04:25:00,
2013-02-12 23:26:00,49.8,38.4,29.66,WNW,293,0.0,0.0,65,0.00,,,0.00,WUHU216HW,2013-02-13 04:26:00,
2013-02-12 23:27:00,65.8,43.2,29.59,West,270,0.0,0.0,43,0.00,,,0.10,WUHU216HW,2013-02-13 04:27:00,
2013-02-12 23:28:00,65.8,43.2,29.59,West,270,0.0,0.0,43,0.00,,,0.10,WUHU216HW,2013-02-13 04:28:00,
2013-02-12 23:29:00,65.8,43.2,29.59,West,270,0.0,0.0,43,0.00,,,0.10,WUHU216HW,2013-02-13 04:29:00,
2013-02-12 23:30:00,65.8,43.2,29.59,West,270,0.0,0.0,43,0.00,,,0.10,WUHU216HW,2013-02-13 04:30:00,
2013-02-12 23:31:00,50.0,38.2,29.66,WNW,293,0.0,0.0,64,0.00,,,0.00,WUHU216HW,2013-02-13 04:31:00,
2013-02-12 23:32:00,66.0,43.9,29.59,West,270,0.0,0.0,45,0.00,,,0.10,WUHU216HW,2013-02-13 04:32:00,
2013-02-12 23:33:00,66.0,43.9,29.59,West,270,0.0,0.0,45,0.00,,,0.10,WUHU216HW,2013-02-13 04:33:00,
2013-02-12 23:34:00,66.0,43.9,29.59,West,270,0.0,0.0,41,0.00,,,0.10,WUHU216HW,2013-02-13 04:34:00,
2013-02-12 23:35:00,66.0,43.9,29.59,WNW,293,0.0,0.0,43,0.00,,,0.10,WUHU216HW,2013-02-13 04:35:00,
2013-02-12 23:36:00,50.1,38.4,29.65,WNW,293,0.0,0.0,64,0.00,,,0.00,WUHU216HW,2013-02-13 04:36:00,
2013-02-12 23:37:00,66.0,43.9,29.59,SW,225,0.0,0.0,40,0.00,,,0.10,WUHU216HW,2013-02-13 04:37:00,
2013-02-12 23:38:00,66.0,43.9,29.59,SW,225,0.0,0.0,40,0.00,,,0.10,WUHU216HW,2013-02-13 04:38:00,
2013-02-12 23:39:00,66.0,43.9,29.59,SW,225,0.0,0.0,40,0.00,,,0.10,WUHU216HW,2013-02-13 04:39:00,
2013-02-12 23:40:00,65.8,40.8,29.59,West,270,0.0,0.0,40,0.00,,,0.10,WUHU216HW,2013-02-13 04:40:00,
2013-02-12 23:41:00,50.1,38.4,29.65,WNW,293,0.0,0.0,64,0.00,,,0.00,WUHU216HW,2013-02-13 04:41:00,
2013-02-12 23:42:00,66.0,40.3,29.59,West,270,0.0,0.0,39,0.00,,,0.10,WUHU216HW,2013-02-13 04:42:00,
2013-02-12 23:46:00,50.1,38.4,29.65,WNW,293,0.0,0.0,64,0.00,,,0.00,WUHU216HW,2013-02-13 04:46:00,
2013-02-12 23:51:00,50.1,38.4,29.65,WNW,293,0.0,0.0,64,0.00,,,0.00,WUHU216HW,2013-02-13 04:51:00,
2013-02-12 23:52:00,65.8,40.1,29.59,West,270,0.0,6.4,39,0.00,,,0.10,WUHU216HW,2013-02-13 04:52:00,
2013-02-12 23:53:00,65.8,40.1,29.59,West,270,0.0,6.4,39,0.00,,,0.10,WUHU216HW,2013-02-13 04:53:00,
2013-02-12 23:54:00,65.8,40.1,29.59,WSW,248,0.0,6.4,40,0.00,,,0.10,WUHU216HW,2013-02-13 04:54:00,
2013-02-12 23:55:00,65.8,40.1,29.59,WSW,248,0.0,6.4,40,0.00,,,0.10,WUHU216HW,2013-02-13 04:55:00,
2013-02-12 23:56:00,65.8,40.1,29.59,NW,315,0.0,6.4,40,0.00,,,0.10,WUHU216HW,2013-02-13 04:56:00,
2013-02-12 23:57:00,50.1,38.4,29.65,WNW,293,0.0,0.0,64,0.00,,,0.00,WUHU216HW,2013-02-13 04:57:00,
2013-02-12 23:58:00,65.8,40.1,29.59,West,270,0.0,5.8,39,0.00,,,0.10,WUHU216HW,2013-02-13 04:58:00,
2013-02-12 23:59:00,65.8,40.1,29.59,West,270,0.0,5.8,39,0.00,,,0.10,WUHU216HW,2013-02-13 04:59:00,